Time,TemperatureF,DewpointF,PressureIn,WindDirection,WindDirectionDegrees,WindSpeedMPH,WindSpeedGustMPH,Humidity,HourlyPrecipIn,Conditions,Clouds,dailyrainin,SoftwareType,DateUTC
2013-02-17 00:00:00,15.3,12.9,30.13,NW,309,0.0,1.0,90,0.00,,,0.00,Wunderground v.1.15,2013-02-17 05:00:00,
2013-02-17 00:01:00,15.3,12.9,30.13,NNW,328,1.0,1.0,90,0.00,,,0.00,Wunderground v.1.15,2013-02-17 05:01:00,
2013-02-17 00:03:00,15.4,13.0,30.13,NW,326,0.0,1.0,90,0.00,,,0.00,Wunderground v.1.15,2013-02-17 05:03:00,
2013-02-17 00:08:00,15.4,13.0,30.13,NW,321,1.0,2.0,90,0.00,,,0.00,Wunderground v.1.15,2013-02-17 05:08:00,
2013-02-17 00:10:00,15.4,13.0,30.13,NW,320,0.0,1.0,90,0.00,,,0.00,Wunderground v.1.15,2013-02-17 05:10:00,
2013-02-17 00:11:00,15.4,13.0,30.13,NW,319,1.0,1.0,90,0.00,,,0.00,Wunderground v.1.15,2013-02-17 05:11:00,
2013-02-17 00:12:00,15.4,13.0,30.13,NW,319,0.0,1.0,90,0.00,,,0.00,Wunderground v.1.15,2013-02-17 05:12:00,
2013-02-17 00:13:00,15.4,13.0,30.13,West,281,1.0,1.0,90,0.00,,,0.00,Wunderground v.1.15,2013-02-17 05:13:00,
2013-02-17 00:17:00,15.5,13.1,30.13,NW,311,2.0,2.0,90,0.00,,,0.00,Wunderground v.1.15,2013-02-17 05:17:00,
2013-02-17 00:20:00,15.5,13.1,30.13,NW,323,0.0,1.0,90,0.00,,,0.00,Wunderground v.1.15,2013-02-17 05:20:00,
2013-02-17 00:21:00,15.5,13.1,30.13,NW,311,2.0,2.0,90,0.00,,,0.00,Wunderground v.1.15,2013-02-17 05:21:00,
2013-02-17 00:22:00,15.5,13.1,30.13,WNW,291,0.0,2.0,90,0.00,,,0.00,Wunderground v.1.15,2013-02-17 05:22:00,
2013-02-17 00:26:00,15.6,13.2,30.13,North,11,1.0,2.0,90,0.00,,,0.00,Wunderground v.1.15,2013-02-17 05:26:00,
2013-02-17 00:27:00,15.6,13.2,30.13,North,353,1.0,2.0,90,0.00,,,0.00,Wunderground v.1.15,2013-02-17 05:27:00,
2013-02-17 00:30:00,15.6,13.2,30.13,WNW,283,1.0,1.0,90,0.00,,,0.00,Wunderground v.1.15,2013-02-17 05:30:00,
2013-02-17 00:32:00,15.6,13.2,30.13,NNE,20,3.0,3.0,90,0.00,,,0.00,Wunderground v.1.15,2013-02-17 05:32:00,
2013-02-17 00:35:00,15.6,13.2,30.13,West,273,1.0,3.0,90,0.00,,,0.00,Wunderground v.1.15,2013-02-17 05:35:00,
2013-02-17 00:36:00,15.6,13.2,30.13,NW,316,0.0,3.0,90,0.00,,,0.00,Wunderground v.1.15,2013-02-17 05:36:00,
2013-02-17 00:39:00,15.5,13.1,30.13,North,10,4.0,4.0,90,0.00,,,0.00,Wunderground v.1.15,2013-02-17 05:39:00,
2013-02-17 00:40:00,15.5,13.1,30.13,NNW,340,1.0,2.0,90,0.00,,,0.00,Wunderground v.1.15,2013-02-17 05:40:00,
2013-02-17 00:41:00,15.5,13.1,30.13,WNW,290,3.0,3.0,90,0.00,,,0.00,Wunderground v.1.15,2013-02-17 05:41:00,
2013-02-17 00:42:00,15.5,13.1,30.13,NW,315,0.0,3.0,90,0.00,,,0.00,Wunderground v.1.15,2013-02-17 05:42:00,
2013-02-17 00:46:00,15.5,13.1,30.13,NE,55,2.0,5.0,90,0.00,,,0.00,Wunderground v.1.15,2013-02-17 05:46:00,
2013-02-17 00:47:00,15.4,13.0,30.13,NW,318,1.0,5.0,90,0.00,,,0.00,Wunderground v.1.15,2013-02-17 05:47:00,
2013-02-17 00:49:00,15.4,13.0,30.13,NNE,19,1.0,5.0,90,0.00,,,0.00,Wunderground v.1.15,2013-02-17 05:49:00,
2013-02-17 00:51:00,15.4,13.0,30.13,North,5,3.0,3.0,90,0.00,,,0.00,Wunderground v.1.15,2013-02-17 05:51:00,
2013-02-17 00:53:00,15.4,13.0,30.13,NW,307,2.0,3.0,90,0.00,,,0.00,Wunderground v.1.15,2013-02-17 05:53:00,
2013-02-17 00:54:00,15.3,12.9,30.13,WNW,294,6.0,6.0,90,0.00,,,0.00,Wunderground v.1.15,2013-02-17 05:54:00,
2013-02-17 00:56:00,15.3,12.6,30.14,NNE,29,5.0,6.0,89,0.00,,,0.00,Wunderground v.1.15,2013-02-17 05:56:00,
2013-02-17 00:58:00,15.3,12.6,30.14,NW,304,2.0,6.0,89,0.00,,,0.00,Wunderground v.1.15,2013-02-17 05:58:00,
2013-02-17 01:02:00,15.2,12.5,30.14,NW,312,1.0,4.0,89,0.00,,,0.00,Wunderground v.1.15,2013-02-17 06:02:00,
2013-02-17 01:03:00,15.2,12.5,30.14,NW,305,0.0,4.0,89,0.00,,,0.00,Wunderground v.1.15,2013-02-17 06:03:00,
2013-02-17 01:04:00,15.1,12.4,30.14,West,275,1.0,4.0,89,0.00,,,0.00,Wunderground v.1.15,2013-02-17 06:04:00,
2013-02-17 01:05:00,15.1,12.4,30.14,NNW,345,5.0,5.0,89,0.00,,,0.00,Wunderground v.1.15,2013-02-17 06:05:00,
2013-02-17 01:09:00,15.0,12.3,30.14,NNW,333,3.0,5.0,89,0.00,,,0.00,Wunderground v.1.15,2013-02-17 06:09:00,
2013-02-17 01:11:00,14.9,12.2,30.14,North,11,1.0,2.0,89,0.00,,,0.00,Wunderground v.1.15,2013-02-17 06:11:00,
2013-02-17 01:14:00,14.8,11.9,30.14,West,278,1.0,3.0,88,0.00,,,0.00,Wunderground v.1.15,2013-02-17 06:14:00,
2013-02-17 01:15:00,14.8,11.9,30.14,NW,311,2.0,3.0,88,0.00,,,0.00,Wunderground v.1.15,2013-02-17 06:15:00,
2013-02-17 01:18:00,14.7,11.8,30.14,West,269,3.0,3.0,88,0.00,,,0.00,Wunderground v.1.15,2013-02-17 06:18:00,
2013-02-17 01:21:00,14.6,11.7,30.14,NNW,348,4.0,4.0,88,0.00,,,0.00,Wunderground v.1.15,2013-02-17 06:21:00,
2013-02-17 01:23:00,14.5,11.6,30.14,WNW,291,3.0,4.0,88,0.00,,,0.00,Wunderground v.1.15,2013-02-17 06:23:00,
2013-02-17 01:26:00,14.4,11.5,30.15,NW,311,3.0,4.0,88,0.00,,,0.00,Wunderground v.1.15,2013-02-17 06:26:00,
2013-02-17 01:27:00,14.4,11.5,30.14,ENE,68,2.0,4.0,88,0.00,,,0.00,Wunderground v.1.15,2013-02-17 06:27:00,
2013-02-17 01:28:00,14.4,11.5,30.15,NW,323,3.0,4.0,88,0.00,,,0.00,Wunderground v.1.15,2013-02-17 06:28:00,
2013-02-17 01:30:00,14.3,11.4,30.15,West,281,1.0,2.0,88,0.00,,,0.00,Wunderground v.1.15,2013-02-17 06:30:00,
2013-02-17 01:31:00,14.3,11.4,30.15,NNW,348,1.0,2.0,88,0.00,,,0.00,Wunderground v.1.15,2013-02-17 06:31:00,
2013-02-17 01:34:00,14.2,11.3,30.15,WNW,302,2.0,2.0,88,0.00,,,0.00,Wunderground v.1.15,2013-02-17 06:34:00,
2013-02-17 01:36:00,14.1,11.2,30.15,NNW,329,1.0,2.0,88,0.00,,,0.00,Wunderground v.1.15,2013-02-17 06:36:00,
2013-02-17 01:37:00,14.1,11.2,30.15,West,273,0.0,2.0,88,0.00,,,0.00,Wunderground v.1.15,2013-02-17 06:37:00,
2013-02-17 01:39:00,14.0,11.1,30.15,NW,311,2.0,2.0,88,0.00,,,0.00,Wunderground v.1.15,2013-02-17 06:39:00,
2013-02-17 01:41:00,14.0,11.1,30.15,NNW,329,2.0,3.0,88,0.00,,,0.00,Wunderground v.1.15,2013-02-17 06:41:00,
2013-02-17 01:43:00,13.9,11.0,30.15,West,276,4.0,4.0,88,0.00,,,0.00,Wunderground v.1.15,2013-02-17 06:43:00,
2013-02-17 01:45:00,13.8,10.9,30.15,North,357,1.0,5.0,88,0.00,,,0.00,Wunderground v.1.15,2013-02-17 06:45:00,
2013-02-17 01:48:00,13.7,10.8,30.15,WNW,295,2.0,5.0,88,0.00,,,0.00,Wunderground v.1.15,2013-02-17 06:48:00,
2013-02-17 01:49:00,13.7,10.8,30.15,WNW,302,2.0,5.0,88,0.00,,,0.00,Wunderground v.1.15,2013-02-17 06:49:00,
2013-02-17 01:54:00,13.5,10.6,30.15,North,3,2.0,4.0,88,0.00,,,0.00,Wunderground v.1.15,2013-02-17 06:54:00,
2013-02-17 01:55:00,13.5,10.6,30.15,North,354,3.0,4.0,88,0.00,,,0.00,Wunderground v.1.15,2013-02-17 06:55:00,
2013-02-17 01:58:00,13.4,10.5,30.15,NNE,24,3.0,4.0,88,0.00,,,0.00,Wunderground v.1.15,2013-02-17 06:58:00,
2013-02-17 01:59:00,13.3,10.4,30.15,WNW,302,1.0,4.0,88,0.00,,,0.00,Wunderground v.1.15,2013-02-17 06:59:00,
2013-02-17 02:00:00,13.3,10.4,30.15,West,276,0.0,2.0,88,0.00,,,0.00,Wunderground v.1.15,2013-02-17 07:00:00,
2013-02-17 02:01:00,13.3,10.4,30.15,WNW,296,0.0,2.0,88,0.00,,,0.00,Wunderground v.1.15,2013-02-17 07:01:00,
2013-02-17 02:03:00,13.2,10.3,30.15,NNW,333,1.0,2.0,88,0.00,,,0.00,Wunderground v.1.15,2013-02-17 07:03:00,
2013-02-17 02:04:00,13.2,10.3,30.15,NW,326,2.0,2.0,88,0.00,,,0.00,Wunderground v.1.15,2013-02-17 07:04:00,
2013-02-17 02:05:00,13.2,10.3,30.15,West,276,1.0,3.0,88,0.00,,,0.00,Wunderground v.1.15,2013-02-17 07:05:00,
2013-02-17 02:06:00,13.1,10.2,30.15,NW,317,3.0,3.0,88,0.00,,,0.00,Wunderground v.1.15,2013-02-17 07:06:00,
2013-02-17 02:08:00,13.1,10.2,30.15,NW,316,3.0,5.0,88,0.00,,,0.00,Wunderground v.1.15,2013-02-17 07:08:00,
2013-02-17 02:09:00,13.0,9.9,30.15,NW,326,2.0,5.0,87,0.00,,,0.00,Wunderground v.1.15,2013-02-17 07:09:00,
2013-02-17 02:11:00,13.0,9.9,30.15,NW,311,3.0,3.0,87,0.00,,,0.00,Wunderground v.1.15,2013-02-17 07:11:00,
2013-02-17 02:13:00,13.0,9.9,30.16,NNW,341,1.0,3.0,87,0.00,,,0.00,Wunderground v.1.15,2013-02-17 07:13:00,
2013-02-17 02:14:00,12.9,9.8,30.16,NW,310,3.0,3.0,87,0.00,,,0.00,Wunderground v.1.15,2013-02-17 07:14:00,
2013-02-17 02:16:00,12.9,9.8,30.16,NW,316,2.0,7.0,87,0.00,,,0.00,Wunderground v.1.15,2013-02-17 07:16:00,
2013-02-17 02:19:00,12.8,9.7,30.16,WNW,291,2.0,7.0,87,0.00,,,0.00,Wunderground v.1.15,2013-02-17 07:19:00,
2013-02-17 02:21:00,12.8,9.7,30.16,NNW,340,4.0,4.0,87,0.00,,,0.00,Wunderground v.1.15,2013-02-17 07:21:00,
2013-02-17 02:24:00,12.7,9.6,30.16,WNW,282,1.0,5.0,87,0.00,,,0.00,Wunderground v.1.15,2013-02-17 07:24:00,
2013-02-17 02:26:00,12.6,9.5,30.16,NW,311,3.0,6.0,87,0.00,,,0.00,Wunderground v.1.15,2013-02-17 07:26:00,
2013-02-17 02:29:00,12.5,9.4,30.16,NW,316,3.0,3.0,87,0.00,,,0.00,Wunderground v.1.15,2013-02-17 07:29:00,
2013-02-17 02:30:00,12.5,9.4,30.16,NNW,346,1.0,3.0,87,0.00,,,0.00,Wunderground v.1.15,2013-02-17 07:30:00,
2013-02-17 02:31:00,12.5,9.4,30.16,WNW,296,1.0,3.0,87,0.00,,,0.00,Wunderground v.1.15,2013-02-17 07:31:00,
2013-02-17 02:32:00,12.4,9.3,30.16,NW,319,1.0,4.0,87,0.00,,,0.00,Wunderground v.1.15,2013-02-17 07:32:00,
2013-02-17 02:35:00,12.4,9.3,30.16,WNW,295,1.0,4.0,87,0.00,,,0.00,Wunderground v.1.15,2013-02-17 07:35:00,
2013-02-17 02:36:00,12.3,9.2,30.16,WNW,287,1.0,4.0,87,0.00,,,0.00,Wunderground v.1.15,2013-02-17 07:36:00,
2013-02-17 02:37:00,12.3,9.2,30.16,NW,313,1.0,4.0,87,0.00,,,0.00,Wunderground v.1.15,2013-02-17 07:37:00,
2013-02-17 02:40:00,12.2,9.1,30.16,West,277,1.0,2.0,87,0.00,,,0.00,Wunderground v.1.15,2013-02-17 07:40:00,
2013-02-17 02:41:00,12.2,9.1,30.16,NW,313,5.0,6.0,87,0.00,,,0.00,Wunderground v.1.15,2013-02-17 07:41:00,
2013-02-17 02:42:00,12.1,9.0,30.16,NNW,330,3.0,6.0,87,0.00,,,0.00,Wunderground v.1.15,2013-02-17 07:42:00,
2013-02-17 02:45:00,12.1,9.0,30.16,NW,314,2.0,6.0,87,0.00,,,0.00,Wunderground v.1.15,2013-02-17 07:45:00,
2013-02-17 02:47:00,12.0,8.9,30.16,NW,316,0.0,6.0,87,0.00,,,0.00,Wunderground v.1.15,2013-02-17 07:47:00,
2013-02-17 02:50:00,11.9,8.5,30.17,NW,314,7.0,7.0,86,0.00,,,0.00,Wunderground v.1.15,2013-02-17 07:50:00,
2013-02-17 02:52:00,11.9,8.5,30.16,WNW,292,1.0,7.0,86,0.00,,,0.00,Wunderground v.1.15,2013-02-17 07:52:00,
2013-02-17 02:55:00,11.8,8.4,30.16,NW,322,3.0,7.0,86,0.00,,,0.00,Wunderground v.1.15,2013-02-17 07:55:00,
2013-02-17 02:57:00,11.8,8.4,30.16,NW,316,4.0,7.0,86,0.00,,,0.00,Wunderground v.1.15,2013-02-17 07:57:00,
2013-02-17 02:58:00,11.8,8.4,30.16,NNW,342,2.0,7.0,86,0.00,,,0.00,Wunderground v.1.15,2013-02-17 07:58:00,
2013-02-17 03:01:00,11.7,8.3,30.16,NW,317,6.0,6.0,86,0.00,,,0.00,Wunderground v.1.15,2013-02-17 08:01:00,
2013-02-17 03:02:00,11.7,8.3,30.17,NW,316,2.0,6.0,86,0.00,,,0.00,Wunderground v.1.15,2013-02-17 08:02:00,
2013-02-17 03:03:00,11.7,8.3,30.17,WNW,298,3.0,6.0,86,0.00,,,0.00,Wunderground v.1.15,2013-02-17 08:03:00,
2013-02-17 03:06:00,11.7,8.3,30.17,WNW,285,1.0,6.0,86,0.00,,,0.00,Wunderground v.1.15,2013-02-17 08:06:00,
2013-02-17 03:07:00,11.7,8.3,30.17,NW,326,3.0,6.0,86,0.00,,,0.00,Wunderground v.1.15,2013-02-17 08:07:00,
2013-02-17 03:08:00,11.6,8.2,30.17,WNW,283,2.0,6.0,86,0.00,,,0.00,Wunderground v.1.15,2013-02-17 08:08:00,
2013-02-17 03:11:00,11.5,8.1,30.17,NNW,329,1.0,4.0,86,0.00,,,0.00,Wunderground v.1.15,2013-02-17 08:11:00,
2013-02-17 03:12:00,11.5,8.1,30.17,West,270,1.0,4.0,86,0.00,,,0.00,Wunderground v.1.15,2013-02-17 08:12:00,
2013-02-17 03:13:00,11.5,8.1,30.17,NW,326,2.0,4.0,86,0.00,,,0.00,Wunderground v.1.15,2013-02-17 08:13:00,
2013-02-17 03:17:00,11.4,8.0,30.17,NW,304,2.0,4.0,86,0.00,,,0.00,Wunderground v.1.15,2013-02-17 08:17:00,
2013-02-17 03:18:00,11.3,7.9,30.17,NW,306,1.0,4.0,86,0.00,,,0.00,Wunderground v.1.15,2013-02-17 08:18:00,
2013-02-17 03:22:00,11.1,7.7,30.17,NNE,15,1.0,6.0,86,0.00,,,0.00,Wunderground v.1.15,2013-02-17 08:22:00,
2013-02-17 03:23:00,11.1,7.7,30.17,West,259,2.0,6.0,86,0.00,,,0.00,Wunderground v.1.15,2013-02-17 08:23:00,
2013-02-17 03:27:00,10.9,7.3,30.17,NE,38,2.0,10.0,85,0.00,,,0.00,Wunderground v.1.15,2013-02-17 08:27:00,
2013-02-17 03:28:00,10.9,7.3,30.17,NW,314,2.0,10.0,85,0.00,,,0.00,Wunderground v.1.15,2013-02-17 08:28:00,
2013-02-17 03:32:00,10.6,7.0,30.17,NNW,333,3.0,6.0,85,0.00,,,0.00,Wunderground v.1.15,2013-02-17 08:32:00,
2013-02-17 03:33:00,10.6,7.0,30.17,NNW,335,1.0,6.0,85,0.00,,,0.00,Wunderground v.1.15,2013-02-17 08:33:00,
2013-02-17 03:34:00,10.6,7.0,30.17,NW,322,3.0,6.0,85,0.00,,,0.00,Wunderground v.1.15,2013-02-17 08:34:00,
2013-02-17 03:37:00,10.4,6.8,30.17,WNW,295,5.0,6.0,85,0.00,,,0.00,Wunderground v.1.15,2013-02-17 08:37:00,
2013-02-17 03:38:00,10.4,6.8,30.17,NNW,330,1.0,6.0,85,0.00,,,0.00,Wunderground v.1.15,2013-02-17 08:38:00,
2013-02-17 03:39:00,10.4,6.8,30.17,West,260,2.0,6.0,85,0.00,,,0.00,Wunderground v.1.15,2013-02-17 08:39:00,
2013-02-17 03:42:00,10.3,6.4,30.17,North,349,2.0,5.0,84,0.00,,,0.00,Wunderground v.1.15,2013-02-17 08:42:00,
2013-02-17 03:43:00,10.3,6.4,30.17,NW,311,3.0,5.0,84,0.00,,,0.00,Wunderground v.1.15,2013-02-17 08:43:00,
2013-02-17 03:44:00,10.2,6.3,30.17,West,273,1.0,5.0,84,0.00,,,0.00,Wunderground v.1.15,2013-02-17 08:44:00,
2013-02-17 03:48:00,10.0,6.1,30.17,NW,314,3.0,5.0,84,0.00,,,0.00,Wunderground v.1.15,2013-02-17 08:48:00,
2013-02-17 03:49:00,10.0,6.1,30.17,WNW,291,1.0,6.0,84,0.00,,,0.00,Wunderground v.1.15,2013-02-17 08:49:00,
2013-02-17 03:53:00,9.9,6.0,30.17,NW,325,1.0,5.0,84,0.00,,,0.00,Wunderground v.1.15,2013-02-17 08:53:00,
2013-02-17 03:54:00,9.8,5.9,30.17,WNW,302,1.0,5.0,84,0.00,,,0.00,Wunderground v.1.15,2013-02-17 08:54:00,
2013-02-17 03:58:00,9.7,5.8,30.17,WNW,297,1.0,6.0,84,0.00,,,0.00,Wunderground v.1.15,2013-02-17 08:58:00,
2013-02-17 03:59:00,9.6,5.7,30.17,WNW,300,1.0,6.0,84,0.00,,,0.00,Wunderground v.1.15,2013-02-17 08:59:00,
2013-02-17 04:03:00,9.5,5.6,30.17,West,278,1.0,2.0,84,0.00,,,0.00,Wunderground v.1.15,2013-02-17 09:03:00,
2013-02-17 04:04:00,9.5,5.6,30.17,West,278,1.0,2.0,84,0.00,,,0.00,Wunderground v.1.15,2013-02-17 09:04:00,
2013-02-17 04:05:00,9.4,5.5,30.17,NW,316,3.0,3.0,84,0.00,,,0.00,Wunderground v.1.15,2013-02-17 09:05:00,
2013-02-17 04:08:00,9.3,5.4,30.17,NW,304,1.0,3.0,84,0.00,,,0.00,Wunderground v.1.15,2013-02-17 09:08:00,
2013-02-17 04:09:00,9.2,5.3,30.17,NW,304,0.0,3.0,84,0.00,,,0.00,Wunderground v.1.15,2013-02-17 09:09:00,
2013-02-17 04:10:00,9.2,5.3,30.17,West,261,0.0,1.0,84,0.00,,,0.00,Wunderground v.1.15,2013-02-17 09:10:00,
2013-02-17 04:13:00,9.0,5.1,30.17,NW,321,0.0,2.0,84,0.00,,,0.00,Wunderground v.1.15,2013-02-17 09:13:00,
2013-02-17 04:14:00,9.0,4.9,30.17,NW,320,1.0,2.0,83,0.00,,,0.00,Wunderground v.1.15,2013-02-17 09:14:00,
2013-02-17 04:15:00,8.9,4.8,30.17,WNW,288,1.0,2.0,83,0.00,,,0.00,Wunderground v.1.15,2013-02-17 09:15:00,
2013-02-17 04:18:00,8.8,4.7,30.17,NW,313,1.0,4.0,83,0.00,,,0.00,Wunderground v.1.15,2013-02-17 09:18:00,
2013-02-17 04:19:00,8.8,4.7,30.17,NW,311,2.0,4.0,83,0.00,,,0.00,Wunderground v.1.15,2013-02-17 09:19:00,
2013-02-17 04:20:00,8.8,4.7,30.17,North,11,0.0,2.0,83,0.00,,,0.00,Wunderground v.1.15,2013-02-17 09:20:00,
2013-02-17 04:23:00,8.6,4.5,30.17,NW,326,1.0,4.0,83,0.00,,,0.00,Wunderground v.1.15,2013-02-17 09:23:00,
2013-02-17 04:24:00,8.5,4.4,30.17,NW,316,1.0,5.0,83,0.00,,,0.00,Wunderground v.1.15,2013-02-17 09:24:00,
2013-02-17 04:25:00,8.5,4.4,30.17,WNW,297,1.0,5.0,83,0.00,,,0.00,Wunderground v.1.15,2013-02-17 09:25:00,
2013-02-17 04:28:00,8.4,4.3,30.18,NNW,339,1.0,5.0,83,0.00,,,0.00,Wunderground v.1.15,2013-02-17 09:28:00,
2013-02-17 04:29:00,8.4,4.3,30.18,West,269,1.0,1.0,83,0.00,,,0.00,Wunderground v.1.15,2013-02-17 09:29:00,
2013-02-17 04:30:00,8.4,4.3,30.18,West,270,1.0,1.0,83,0.00,,,0.00,Wunderground v.1.15,2013-02-17 09:30:00,
2013-02-17 04:34:00,8.3,4.5,30.18,NW,311,1.0,4.0,84,0.00,,,0.00,Wunderground v.1.15,2013-02-17 09:34:00,
2013-02-17 04:35:00,8.3,4.5,30.18,NNW,342,2.0,4.0,84,0.00,,,0.00,Wunderground v.1.15,2013-02-17 09:35:00,
2013-02-17 04:36:00,8.3,4.5,30.17,West,278,1.0,4.0,84,0.00,,,0.00,Wunderground v.1.15,2013-02-17 09:36:00,
2013-02-17 04:40:00,8.1,4.3,30.18,NW,319,2.0,2.0,84,0.00,,,0.00,Wunderground v.1.15,2013-02-17 09:40:00,
2013-02-17 04:41:00,8.1,4.3,30.18,WNW,294,1.0,2.0,84,0.00,,,0.00,Wunderground v.1.15,2013-02-17 09:41:00,
2013-02-17 04:45:00,8.0,4.2,30.18,NW,316,2.0,4.0,84,0.00,,,0.00,Wunderground v.1.15,2013-02-17 09:45:00,
2013-02-17 04:46:00,8.0,4.2,30.18,NW,309,0.0,4.0,84,0.00,,,0.00,Wunderground v.1.15,2013-02-17 09:46:00,
2013-02-17 04:50:00,7.9,3.8,30.18,NW,309,0.0,1.0,83,0.00,,,0.00,Wunderground v.1.15,2013-02-17 09:50:00,
2013-02-17 04:52:00,7.8,4.0,30.18,NW,305,0.0,3.0,84,0.00,,,0.00,Wunderground v.1.15,2013-02-17 09:52:00,
2013-02-17 04:55:00,7.7,3.9,30.18,NW,316,1.0,3.0,84,0.00,,,0.00,Wunderground v.1.15,2013-02-17 09:55:00,
2013-02-17 04:56:00,7.7,3.9,30.18,NW,316,0.0,3.0,84,0.00,,,0.00,Wunderground v.1.15,2013-02-17 09:56:00,
2013-02-17 04:57:00,7.7,3.9,30.18,NW,319,1.0,3.0,84,0.00,,,0.00,Wunderground v.1.15,2013-02-17 09:57:00,
2013-02-17 05:01:00,7.6,3.8,30.19,NNW,329,6.0,6.0,84,0.00,,,0.00,Wunderground v.1.15,2013-02-17 10:01:00,
2013-02-17 05:02:00,7.7,3.9,30.19,NE,34,2.0,6.0,84,0.00,,,0.00,Wunderground v.1.15,2013-02-17 10:02:00,
2013-02-17 05:06:00,7.6,3.8,30.19,WNW,301,1.0,6.0,84,0.00,,,0.00,Wunderground v.1.15,2013-02-17 10:06:00,
2013-02-17 05:07:00,7.6,3.8,30.19,NW,314,2.0,6.0,84,0.00,,,0.00,Wunderground v.1.15,2013-02-17 10:07:00,
2013-02-17 05:11:00,7.5,3.7,30.19,West,275,1.0,2.0,84,0.00,,,0.00,Wunderground v.1.15,2013-02-17 10:11:00,
2013-02-17 05:12:00,7.6,3.8,30.19,WNW,301,1.0,2.0,84,0.00,,,0.00,Wunderground v.1.15,2013-02-17 10:12:00,
2013-02-17 05:16:00,7.5,3.7,30.19,WNW,303,2.0,3.0,84,0.00,,,0.00,Wunderground v.1.15,2013-02-17 10:16:00,
2013-02-17 05:17:00,7.4,3.6,30.19,NW,304,1.0,3.0,84,0.00,,,0.00,Wunderground v.1.15,2013-02-17 10:17:00,
2013-02-17 05:21:00,7.4,3.6,30.19,NW,314,1.0,1.0,84,0.00,,,0.00,Wunderground v.1.15,2013-02-17 10:21:00,
2013-02-17 05:22:00,7.4,3.6,30.19,NW,314,1.0,1.0,84,0.00,,,0.00,Wunderground v.1.15,2013-02-17 10:22:00,
2013-02-17 05:27:00,7.2,3.4,30.19,NW,308,0.0,3.0,84,0.00,,,0.00,Wunderground v.1.15,2013-02-17 10:27:00,
2013-02-17 05:32:00,7.0,3.2,30.19,NW,321,1.0,1.0,84,0.00,,,0.00,Wunderground v.1.15,2013-02-17 10:32:00,
2013-02-17 05:37:00,6.9,3.1,30.19,NW,318,1.0,2.0,84,0.00,,,0.00,Wunderground v.1.15,2013-02-17 10:37:00,
2013-02-17 05:38:00,6.9,3.1,30.20,NW,316,1.0,2.0,84,0.00,,,0.00,Wunderground v.1.15,2013-02-17 10:38:00,
2013-02-17 05:42:00,6.8,3.2,30.20,WNW,299,1.0,2.0,85,0.00,,,0.00,Wunderground v.1.15,2013-02-17 10:42:00,
2013-02-17 05:43:00,6.8,3.2,30.20,WNW,294,1.0,2.0,85,0.00,,,0.00,Wunderground v.1.15,2013-02-17 10:43:00,
2013-02-17 05:47:00,6.8,3.2,30.20,NW,311,1.0,2.0,85,0.00,,,0.00,Wunderground v.1.15,2013-02-17 10:47:00,
2013-02-17 05:48:00,6.8,3.2,30.19,NW,311,1.0,2.0,85,0.00,,,0.00,Wunderground v.1.15,2013-02-17 10:48:00,
2013-02-17 05:52:00,6.7,3.1,30.20,NNW,346,0.0,3.0,85,0.00,,,0.00,Wunderground v.1.15,2013-02-17 10:52:00,
2013-02-17 05:53:00,6.7,3.1,30.20,NNW,346,0.0,3.0,85,0.00,,,0.00,Wunderground v.1.15,2013-02-17 10:53:00,
2013-02-17 05:57:00,6.6,3.0,30.20,NW,315,1.0,3.0,85,0.00,,,0.00,Wunderground v.1.15,2013-02-17 10:57:00,
2013-02-17 05:58:00,6.6,3.0,30.20,NW,315,0.0,3.0,85,0.00,,,0.00,Wunderground v.1.15,2013-02-17 10:58:00,
2013-02-17 06:03:00,6.5,3.0,30.20,West,268,0.0,1.0,85,0.00,,,0.00,Wunderground v.1.15,2013-02-17 11:03:00,
2013-02-17 06:08:00,6.3,2.8,30.20,NW,314,1.0,3.0,85,0.00,,,0.00,Wunderground v.1.15,2013-02-17 11:08:00,
2013-02-17 06:13:00,6.3,2.8,30.20,NW,318,0.0,2.0,85,0.00,,,0.00,Wunderground v.1.15,2013-02-17 11:13:00,
2013-02-17 06:14:00,6.3,2.8,30.20,NW,316,0.0,2.0,85,0.00,,,0.00,Wunderground v.1.15,2013-02-17 11:14:00,
2013-02-17 06:18:00,6.2,2.7,30.20,NW,314,0.0,2.0,85,0.00,,,0.00,Wunderground v.1.15,2013-02-17 11:18:00,
2013-02-17 06:19:00,6.2,2.7,30.20,NW,315,0.0,2.0,85,0.00,,,0.00,Wunderground v.1.15,2013-02-17 11:19:00,
2013-02-17 06:23:00,6.1,2.6,30.21,WNW,297,2.0,3.0,85,0.00,,,0.00,Wunderground v.1.15,2013-02-17 11:23:00,
2013-02-17 06:24:00,6.1,2.6,30.21,NW,318,3.0,3.0,85,0.00,,,0.00,Wunderground v.1.15,2013-02-17 11:24:00,
2013-02-17 06:29:00,6.1,2.6,30.21,NW,323,2.0,4.0,85,0.00,,,0.00,Wunderground v.1.15,2013-02-17 11:29:00,
2013-02-17 06:34:00,6.2,2.7,30.21,NW,308,1.0,3.0,85,0.00,,,0.00,Wunderground v.1.15,2013-02-17 11:34:00,
2013-02-17 06:35:00,6.2,2.7,30.21,NW,305,4.0,4.0,85,0.00,,,0.00,Wunderground v.1.15,2013-02-17 11:35:00,
2013-02-17 06:39:00,6.2,2.7,30.21,NW,311,1.0,4.0,85,0.00,,,0.00,Wunderground v.1.15,2013-02-17 11:39:00,
2013-02-17 06:40:00,6.2,2.7,30.21,NW,311,1.0,2.0,85,0.00,,,0.00,Wunderground v.1.15,2013-02-17 11:40:00,
2013-02-17 06:44:00,6.2,2.7,30.21,WNW,288,0.0,3.0,85,0.00,,,0.00,Wunderground v.1.15,2013-02-17 11:44:00,
2013-02-17 06:45:00,6.1,2.6,30.21,WNW,288,0.0,3.0,85,0.00,,,0.00,Wunderground v.1.15,2013-02-17 11:45:00,
2013-02-17 06:50:00,6.1,2.6,30.22,NW,308,2.0,2.0,85,0.00,,,0.00,Wunderground v.1.15,2013-02-17 11:50:00,
2013-02-17 06:55:00,6.2,2.7,30.22,NW,314,2.0,5.0,85,0.00,,,0.00,Wunderground v.1.15,2013-02-17 11:55:00,
2013-02-17 06:56:00,6.2,2.7,30.22,NW,311,3.0,5.0,85,0.00,,,0.00,Wunderground v.1.15,2013-02-17 11:56:00,
2013-02-17 07:00:00,6.2,2.7,30.22,NW,313,5.0,5.0,85,0.00,,,0.00,Wunderground v.1.15,2013-02-17 12:00:00,
2013-02-17 07:01:00,6.2,2.7,30.22,NW,316,2.0,6.0,85,0.00,,,0.00,Wunderground v.1.15,2013-02-17 12:01:00,
2013-02-17 07:05:00,6.2,2.7,30.22,NW,319,2.0,6.0,85,0.00,,,0.00,Wunderground v.1.15,2013-02-17 12:05:00,
2013-02-17 07:06:00,6.2,2.7,30.22,NW,318,1.0,6.0,85,0.00,,,0.00,Wunderground v.1.15,2013-02-17 12:06:00,
2013-02-17 07:11:00,6.2,2.7,30.22,WNW,302,2.0,3.0,85,0.00,,,0.00,Wunderground v.1.15,2013-02-17 12:11:00,
2013-02-17 07:16:00,6.1,2.6,30.22,WNW,294,1.0,4.0,85,0.00,,,0.00,Wunderground v.1.15,2013-02-17 12:16:00,
2013-02-17 07:17:00,6.1,2.6,30.22,NW,326,3.0,4.0,85,0.00,,,0.00,Wunderground v.1.15,2013-02-17 12:17:00,
2013-02-17 07:21:00,6.1,2.6,30.22,WNW,301,2.0,3.0,85,0.00,,,0.00,Wunderground v.1.15,2013-02-17 12:21:00,
2013-02-17 07:22:00,6.1,2.6,30.23,NW,309,1.0,3.0,85,0.00,,,0.00,Wunderground v.1.15,2013-02-17 12:22:00,
2013-02-17 07:26:00,6.1,2.3,30.23,NNW,333,3.0,4.0,84,0.00,,,0.00,Wunderground v.1.15,2013-02-17 12:26:00,
2013-02-17 07:27:00,6.1,2.3,30.23,WNW,297,2.0,4.0,84,0.00,,,0.00,Wunderground v.1.15,2013-02-17 12:27:00,
2013-02-17 07:31:00,6.1,2.3,30.23,West,276,1.0,4.0,84,0.00,,,0.00,Wunderground v.1.15,2013-02-17 12:31:00,
2013-02-17 07:32:00,6.1,2.3,30.23,West,267,1.0,4.0,84,0.00,,,0.00,Wunderground v.1.15,2013-02-17 12:32:00,
2013-02-17 07:36:00,6.1,2.3,30.23,WNW,282,1.0,4.0,84,0.00,,,0.00,Wunderground v.1.15,2013-02-17 12:36:00,
2013-02-17 07:37:00,6.1,2.3,30.23,West,259,1.0,4.0,84,0.00,,,0.00,Wunderground v.1.15,2013-02-17 12:37:00,
2013-02-17 07:41:00,6.0,2.2,30.23,NW,318,2.0,5.0,84,0.00,,,0.00,Wunderground v.1.15,2013-02-17 12:41:00,
2013-02-17 07:42:00,6.1,2.3,30.23,WNW,302,0.0,5.0,84,0.00,,,0.00,Wunderground v.1.15,2013-02-17 12:42:00,
2013-02-17 07:46:00,6.1,2.3,30.23,WNW,297,2.0,6.0,84,0.00,,,0.00,Wunderground v.1.15,2013-02-17 12:46:00,
2013-02-17 07:47:00,6.1,2.3,30.23,NW,314,2.0,6.0,84,0.00,,,0.00,Wunderground v.1.15,2013-02-17 12:47:00,
2013-02-17 07:48:00,6.0,2.2,30.23,NW,309,1.0,6.0,84,0.00,,,0.00,Wunderground v.1.15,2013-02-17 12:48:00,
2013-02-17 07:51:00,6.1,2.3,30.23,NW,304,3.0,7.0,84,0.00,,,0.00,Wunderground v.1.15,2013-02-17 12:51:00,
2013-02-17 07:52:00,6.1,2.3,30.23,NW,309,2.0,7.0,84,0.00,,,0.00,Wunderground v.1.15,2013-02-17 12:52:00,
2013-02-17 07:56:00,6.1,2.3,30.23,NW,304,1.0,7.0,84,0.00,,,0.00,Wunderground v.1.15,2013-02-17 12:56:00,
2013-02-17 07:57:00,6.1,2.3,30.23,NW,309,1.0,7.0,84,0.00,,,0.00,Wunderground v.1.15,2013-02-17 12:57:00,
2013-02-17 07:58:00,6.1,2.3,30.23,NW,311,3.0,7.0,84,0.00,,,0.00,Wunderground v.1.15,2013-02-17 12:58:00,
2013-02-17 08:01:00,6.2,2.4,30.23,NW,304,2.0,4.0,84,0.00,,,0.00,Wunderground v.1.15,2013-02-17 13:01:00,
2013-02-17 08:02:00,6.3,2.5,30.23,West,280,1.0,4.0,84,0.00,,,0.00,Wunderground v.1.15,2013-02-17 13:02:00,
2013-02-17 08:03:00,6.3,2.5,30.23,NW,313,1.0,4.0,84,0.00,,,0.00,Wunderground v.1.15,2013-02-17 13:03:00,
2013-02-17 08:06:00,6.4,2.3,30.23,NW,308,4.0,6.0,83,0.00,,,0.00,Wunderground v.1.15,2013-02-17 13:06:00,
2013-02-17 08:07:00,6.5,2.4,30.23,WNW,298,2.0,6.0,83,0.00,,,0.00,Wunderground v.1.15,2013-02-17 13:07:00,
2013-02-17 08:08:00,6.5,2.4,30.23,NNW,339,1.0,6.0,83,0.00,,,0.00,Wunderground v.1.15,2013-02-17 13:08:00,
2013-02-17 08:11:00,6.6,2.5,30.24,WNW,288,3.0,5.0,83,0.00,,,0.00,Wunderground v.1.15,2013-02-17 13:11:00,
2013-02-17 08:12:00,6.6,2.5,30.24,West,259,1.0,5.0,83,0.00,,,0.00,Wunderground v.1.15,2013-02-17 13:12:00,
2013-02-17 08:13:00,6.6,2.5,30.24,West,259,1.0,5.0,83,0.00,,,0.00,Wunderground v.1.15,2013-02-17 13:13:00,
2013-02-17 08:16:00,6.8,2.7,30.23,WNW,296,1.0,6.0,83,0.00,,,0.00,Wunderground v.1.15,2013-02-17 13:16:00,
2013-02-17 08:17:00,6.8,2.7,30.24,NW,304,2.0,6.0,83,0.00,,,0.00,Wunderground v.1.15,2013-02-17 13:17:00,
2013-02-17 08:18:00,6.8,2.7,30.24,WNW,285,3.0,6.0,83,0.00,,,0.00,Wunderground v.1.15,2013-02-17 13:18:00,
2013-02-17 08:22:00,7.0,2.9,30.24,WNW,295,5.0,7.0,83,0.00,,,0.00,Wunderground v.1.15,2013-02-17 13:22:00,
2013-02-17 08:23:00,7.0,2.7,30.24,NW,320,3.0,7.0,82,0.00,,,0.00,Wunderground v.1.15,2013-02-17 13:23:00,
2013-02-17 08:24:00,7.0,2.7,30.24,NNW,333,3.0,7.0,82,0.00,,,0.00,Wunderground v.1.15,2013-02-17 13:24:00,
2013-02-17 08:27:00,7.2,2.9,30.24,NW,314,6.0,7.0,82,0.00,,,0.00,Wunderground v.1.15,2013-02-17 13:27:00,
2013-02-17 08:28:00,7.3,3.0,30.24,West,275,2.0,7.0,82,0.00,,,0.00,Wunderground v.1.15,2013-02-17 13:28:00,
2013-02-17 08:29:00,7.3,3.0,30.24,NW,318,2.0,7.0,82,0.00,,,0.00,Wunderground v.1.15,2013-02-17 13:29:00,
2013-02-17 08:32:00,7.4,3.1,30.24,NW,316,1.0,5.0,82,0.00,,,0.00,Wunderground v.1.15,2013-02-17 13:32:00,
2013-02-17 08:33:00,7.5,3.2,30.24,WNW,300,1.0,5.0,82,0.00,,,0.00,Wunderground v.1.15,2013-02-17 13:33:00,
2013-02-17 08:34:00,7.5,3.2,30.24,NW,311,1.0,5.0,82,0.00,,,0.00,Wunderground v.1.15,2013-02-17 13:34:00,
2013-02-17 08:37:00,7.6,3.3,30.24,NW,311,4.0,5.0,82,0.00,,,0.00,Wunderground v.1.15,2013-02-17 13:37:00,
2013-02-17 08:38:00,7.6,3.3,30.24,WNW,295,1.0,5.0,82,0.00,,,0.00,Wunderground v.1.15,2013-02-17 13:38:00,
2013-02-17 08:39:00,7.7,3.4,30.24,NW,318,3.0,5.0,82,0.00,,,0.00,Wunderground v.1.15,2013-02-17 13:39:00,
2013-02-17 08:42:00,7.8,3.4,30.24,WSW,253,1.0,4.0,82,0.00,,,0.00,Wunderground v.1.15,2013-02-17 13:42:00,
2013-02-17 08:43:00,7.8,3.4,30.24,NW,313,1.0,5.0,82,0.00,,,0.00,Wunderground v.1.15,2013-02-17 13:43:00,
2013-02-17 08:44:00,7.9,3.5,30.24,NNW,343,2.0,6.0,82,0.00,,,0.00,Wunderground v.1.15,2013-02-17 13:44:00,
2013-02-17 08:47:00,8.0,3.4,30.24,NW,320,2.0,6.0,81,0.00,,,0.00,Wunderground v.1.15,2013-02-17 13:47:00,
2013-02-17 08:48:00,8.1,3.5,30.24,NW,309,1.0,6.0,81,0.00,,,0.00,Wunderground v.1.15,2013-02-17 13:48:00,
2013-02-17 08:49:00,8.1,3.5,30.24,NW,322,2.0,6.0,81,0.00,,,0.00,Wunderground v.1.15,2013-02-17 13:49:00,
2013-02-17 08:52:00,8.3,3.7,30.24,NW,320,2.0,6.0,81,0.00,,,0.00,Wunderground v.1.15,2013-02-17 13:52:00,
2013-02-17 08:53:00,8.3,3.7,30.24,NW,323,1.0,6.0,81,0.00,,,0.00,Wunderground v.1.15,2013-02-17 13:53:00,
2013-02-17 08:54:00,8.3,3.7,30.24,West,278,1.0,6.0,81,0.00,,,0.00,Wunderground v.1.15,2013-02-17 13:54:00,
2013-02-17 08:57:00,8.5,3.9,30.24,WSW,255,2.0,6.0,81,0.00,,,0.00,Wunderground v.1.15,2013-02-17 13:57:00,
2013-02-17 08:58:00,8.5,3.9,30.24,NW,316,5.0,6.0,81,0.00,,,0.00,Wunderground v.1.15,2013-02-17 13:58:00,
2013-02-17 09:00:00,8.6,4.0,30.24,WNW,302,2.0,2.0,81,0.00,,,0.00,Wunderground v.1.15,2013-02-17 14:00:00,
2013-02-17 09:02:00,8.7,3.8,30.24,West,264,1.0,4.0,80,0.00,,,0.00,Wunderground v.1.15,2013-02-17 14:02:00,
2013-02-17 09:03:00,8.8,3.9,30.24,WNW,295,1.0,4.0,80,0.00,,,0.00,Wunderground v.1.15,2013-02-17 14:03:00,
2013-02-17 09:04:00,8.8,3.9,30.24,West,266,1.0,4.0,80,0.00,,,0.00,Wunderground v.1.15,2013-02-17 14:04:00,
2013-02-17 09:05:00,8.8,3.9,30.24,NE,50,2.0,4.0,80,0.00,,,0.00,Wunderground v.1.15,2013-02-17 14:05:00,
2013-02-17 09:08:00,9.1,4.2,30.24,NNW,335,1.0,6.0,80,0.00,,,0.00,Wunderground v.1.15,2013-02-17 14:08:00,
2013-02-17 09:09:00,9.1,4.2,30.24,West,275,2.0,6.0,80,0.00,,,0.00,Wunderground v.1.15,2013-02-17 14:09:00,
2013-02-17 09:10:00,9.2,4.3,30.24,NNW,338,2.0,2.0,80,0.00,,,0.00,Wunderground v.1.15,2013-02-17 14:10:00,
2013-02-17 09:13:00,9.4,4.5,30.24,NW,322,1.0,6.0,80,0.00,,,0.00,Wunderground v.1.15,2013-02-17 14:13:00,
2013-02-17 09:14:00,9.4,4.5,30.24,WNW,289,1.0,6.0,80,0.00,,,0.00,Wunderground v.1.15,2013-02-17 14:14:00,
2013-02-17 09:15:00,9.5,4.6,30.24,NW,311,3.0,6.0,80,0.00,,,0.00,Wunderground v.1.15,2013-02-17 14:15:00,
2013-02-17 09:18:00,9.6,4.4,30.24,NW,309,2.0,6.0,79,0.00,,,0.00,Wunderground v.1.15,2013-02-17 14:18:00,
2013-02-17 09:19:00,9.6,4.4,30.24,NW,320,3.0,6.0,79,0.00,,,0.00,Wunderground v.1.15,2013-02-17 14:19:00,
2013-02-17 09:20:00,9.6,4.4,30.24,NW,318,5.0,7.0,79,0.00,,,0.00,Wunderground v.1.15,2013-02-17 14:20:00,
2013-02-17 09:24:00,9.8,4.6,30.24,West,278,1.0,7.0,79,0.00,,,0.00,Wunderground v.1.15,2013-02-17 14:24:00,
2013-02-17 09:25:00,10.0,4.8,30.24,West,271,1.0,7.0,79,0.00,,,0.00,Wunderground v.1.15,2013-02-17 14:25:00,
2013-02-17 09:29:00,10.2,4.7,30.24,West,273,1.0,7.0,78,0.00,,,0.00,Wunderground v.1.15,2013-02-17 14:29:00,
2013-02-17 09:30:00,10.3,4.8,30.24,WNW,289,3.0,3.0,78,0.00,,,0.00,Wunderground v.1.15,2013-02-17 14:30:00,
2013-02-17 09:31:00,10.3,4.8,30.24,NW,316,2.0,3.0,78,0.00,,,0.00,Wunderground v.1.15,2013-02-17 14:31:00,
2013-02-17 09:34:00,10.5,4.7,30.24,WNW,295,6.0,6.0,77,0.00,,,0.00,Wunderground v.1.15,2013-02-17 14:34:00,
2013-02-17 09:35:00,10.5,4.7,30.24,NW,325,4.0,7.0,77,0.00,,,0.00,Wunderground v.1.15,2013-02-17 14:35:00,
2013-02-17 09:36:00,10.5,4.7,30.24,NW,324,1.0,7.0,77,0.00,,,0.00,Wunderground v.1.15,2013-02-17 14:36:00,
2013-02-17 09:39:00,10.8,5.0,30.23,West,275,2.0,7.0,77,0.00,,,0.00,Wunderground v.1.15,2013-02-17 14:39:00,
2013-02-17 09:40:00,10.9,5.1,30.23,NW,322,2.0,2.0,77,0.00,,,0.00,Wunderground v.1.15,2013-02-17 14:40:00,
2013-02-17 09:41:00,10.9,4.8,30.23,NNW,328,4.0,7.0,76,0.00,,,0.00,Wunderground v.1.15,2013-02-17 14:41:00,
2013-02-17 09:44:00,11.1,5.0,30.23,North,354,5.0,7.0,76,0.00,,,0.00,Wunderground v.1.15,2013-02-17 14:44:00,
2013-02-17 09:45:00,11.2,5.1,30.23,NNW,329,1.0,7.0,76,0.00,,,0.00,Wunderground v.1.15,2013-02-17 14:45:00,
2013-02-17 09:46:00,11.3,5.2,30.23,NW,315,1.0,7.0,76,0.00,,,0.00,Wunderground v.1.15,2013-02-17 14:46:00,
2013-02-17 09:49:00,11.6,5.5,30.23,West,260,2.0,7.0,76,0.00,,,0.00,Wunderground v.1.15,2013-02-17 14:49:00,
2013-02-17 09:50:00,11.7,5.6,30.23,WNW,302,2.0,5.0,76,0.00,,,0.00,Wunderground v.1.15,2013-02-17 14:50:00,
2013-02-17 09:52:00,11.7,5.3,30.23,NW,309,3.0,6.0,75,0.00,,,0.00,Wunderground v.1.15,2013-02-17 14:52:00,
2013-02-17 09:54:00,11.9,5.5,30.23,West,274,2.0,7.0,75,0.00,,,0.00,Wunderground v.1.15,2013-02-17 14:54:00,
2013-02-17 09:55:00,11.9,5.5,30.23,West,270,1.0,7.0,75,0.00,,,0.00,Wunderground v.1.15,2013-02-17 14:55:00,
2013-02-17 09:57:00,12.1,5.4,30.23,WNW,293,2.0,7.0,74,0.00,,,0.00,Wunderground v.1.15,2013-02-17 14:57:00,
2013-02-17 10:00:00,12.2,5.5,30.23,WSW,258,2.0,3.0,74,0.00,,,0.00,Wunderground v.1.15,2013-02-17 15:00:00,
2013-02-17 10:02:00,12.3,5.3,30.23,NE,45,3.0,5.0,73,0.00,,,0.00,Wunderground v.1.15,2013-02-17 15:02:00,
2013-02-17 10:05:00,12.5,5.5,30.24,NW,326,3.0,8.0,73,0.00,,,0.00,Wunderground v.1.15,2013-02-17 15:05:00,
2013-02-17 10:06:00,12.5,5.5,30.24,West,274,1.0,8.0,73,0.00,,,0.00,Wunderground v.1.15,2013-02-17 15:06:00,
2013-02-17 10:07:00,12.5,5.5,30.24,NW,313,2.0,8.0,73,0.00,,,0.00,Wunderground v.1.15,2013-02-17 15:07:00,
2013-02-17 10:10:00,12.7,5.4,30.24,WNW,303,4.0,5.0,72,0.00,,,0.00,Wunderground v.1.15,2013-02-17 15:10:00,
2013-02-17 10:11:00,12.7,5.4,30.24,NW,322,3.0,6.0,72,0.00,,,0.00,Wunderground v.1.15,2013-02-17 15:11:00,
2013-02-17 10:12:00,12.8,5.5,30.24,NNW,333,1.0,6.0,72,0.00,,,0.00,Wunderground v.1.15,2013-02-17 15:12:00,
2013-02-17 10:15:00,13.0,5.7,30.23,NE,53,0.0,6.0,72,0.00,,,0.00,Wunderground v.1.15,2013-02-17 15:15:00,
2013-02-17 10:16:00,13.1,5.8,30.23,NNW,332,3.0,6.0,72,0.00,,,0.00,Wunderground v.1.15,2013-02-17 15:16:00,
2013-02-17 10:17:00,13.2,5.9,30.23,NW,311,1.0,6.0,72,0.00,,,0.00,Wunderground v.1.15,2013-02-17 15:17:00,
2013-02-17 10:20:00,13.6,5.9,30.23,NW,316,1.0,2.0,71,0.00,,,0.00,Wunderground v.1.15,2013-02-17 15:20:00,
2013-02-17 10:21:00,13.6,5.9,30.23,West,267,3.0,5.0,71,0.00,,,0.00,Wunderground v.1.15,2013-02-17 15:21:00,
2013-02-17 10:22:00,13.7,6.0,30.23,NW,309,4.0,6.0,71,0.00,,,0.00,Wunderground v.1.15,2013-02-17 15:22:00,
2013-02-17 10:25:00,14.0,6.0,30.23,NNW,334,1.0,6.0,70,0.00,,,0.00,Wunderground v.1.15,2013-02-17 15:25:00,
2013-02-17 10:26:00,14.0,6.0,30.23,NW,309,1.0,6.0,70,0.00,,,0.00,Wunderground v.1.15,2013-02-17 15:26:00,
2013-02-17 10:27:00,14.1,6.1,30.23,NW,305,6.0,6.0,70,0.00,,,0.00,Wunderground v.1.15,2013-02-17 15:27:00,
2013-02-17 10:30:00,14.2,5.9,30.24,NNE,21,3.0,5.0,69,0.00,,,0.00,Wunderground v.1.15,2013-02-17 15:30:00,
2013-02-17 10:31:00,14.2,5.9,30.24,NW,315,3.0,7.0,69,0.00,,,0.00,Wunderground v.1.15,2013-02-17 15:31:00,
2013-02-17 10:32:00,14.3,6.0,30.24,West,273,2.0,7.0,69,0.00,,,0.00,Wunderground v.1.15,2013-02-17 15:32:00,
2013-02-17 10:35:00,14.5,6.2,30.24,NNE,18,3.0,7.0,69,0.00,,,0.00,Wunderground v.1.15,2013-02-17 15:35:00,
2013-02-17 10:36:00,14.5,6.2,30.24,WNW,303,2.0,7.0,69,0.00,,,0.00,Wunderground v.1.15,2013-02-17 15:36:00,
2013-02-17 10:38:00,14.7,6.0,30.24,West,278,3.0,7.0,68,0.00,,,0.00,Wunderground v.1.15,2013-02-17 15:38:00,
2013-02-17 10:41:00,14.8,6.1,30.24,WNW,302,4.0,7.0,68,0.00,,,0.00,Wunderground v.1.15,2013-02-17 15:41:00,
2013-02-17 10:42:00,14.7,5.7,30.24,WNW,303,2.0,8.0,67,0.00,,,0.00,Wunderground v.1.15,2013-02-17 15:42:00,
2013-02-17 10:43:00,14.6,5.3,30.24,NW,307,4.0,8.0,66,0.00,,,0.00,Wunderground v.1.15,2013-02-17 15:43:00,
2013-02-17 10:46:00,14.7,5.7,30.24,West,270,3.0,8.0,67,0.00,,,0.00,Wunderground v.1.15,2013-02-17 15:46:00,
2013-02-17 10:47:00,14.7,5.7,30.24,NW,311,4.0,8.0,67,0.00,,,0.00,Wunderground v.1.15,2013-02-17 15:47:00,
2013-02-17 10:48:00,14.8,5.8,30.24,West,281,2.0,8.0,67,0.00,,,0.00,Wunderground v.1.15,2013-02-17 15:48:00,
2013-02-17 10:51:00,14.9,5.9,30.25,WSW,256,4.0,6.0,67,0.00,,,0.00,Wunderground v.1.15,2013-02-17 15:51:00,
2013-02-17 10:52:00,15.0,5.7,30.25,West,270,2.0,6.0,66,0.00,,,0.00,Wunderground v.1.15,2013-02-17 15:52:00,
2013-02-17 10:53:00,15.0,5.7,30.25,WNW,301,6.0,7.0,66,0.00,,,0.00,Wunderground v.1.15,2013-02-17 15:53:00,
2013-02-17 10:56:00,15.0,5.7,30.25,West,277,4.0,9.0,66,0.00,,,0.00,Wunderground v.1.15,2013-02-17 15:56:00,
2013-02-17 10:57:00,15.0,5.7,30.25,WNW,293,1.0,9.0,66,0.00,,,0.00,Wunderground v.1.15,2013-02-17 15:57:00,
2013-02-17 10:59:00,15.1,5.8,30.25,West,260,1.0,9.0,66,0.00,,,0.00,Wunderground v.1.15,2013-02-17 15:59:00,
2013-02-17 11:01:00,15.4,5.7,30.25,WNW,284,3.0,7.0,65,0.00,,,0.00,Wunderground v.1.15,2013-02-17 16:01:00,
2013-02-17 11:02:00,15.4,5.7,30.25,WNW,296,4.0,7.0,65,0.00,,,0.00,Wunderground v.1.15,2013-02-17 16:02:00,
2013-02-17 11:04:00,15.5,5.8,30.25,West,263,4.0,7.0,65,0.00,,,0.00,Wunderground v.1.15,2013-02-17 16:04:00,
2013-02-17 11:06:00,15.6,5.9,30.25,NW,323,4.0,7.0,65,0.00,,,0.00,Wunderground v.1.15,2013-02-17 16:06:00,
2013-02-17 11:07:00,15.6,5.9,30.25,WNW,287,2.0,7.0,65,0.00,,,0.00,Wunderground v.1.15,2013-02-17 16:07:00,
2013-02-17 11:09:00,15.6,5.9,30.25,ENE,60,1.0,7.0,65,0.00,,,0.00,Wunderground v.1.15,2013-02-17 16:09:00,
2013-02-17 11:12:00,15.8,5.8,30.25,NNW,345,5.0,9.0,64,0.00,,,0.00,Wunderground v.1.15,2013-02-17 16:12:00,
2013-02-17 11:13:00,15.7,5.3,30.26,NW,304,3.0,9.0,63,0.00,,,0.00,Wunderground v.1.15,2013-02-17 16:13:00,
2013-02-17 11:14:00,15.7,5.7,30.25,NW,319,4.0,9.0,64,0.00,,,0.00,Wunderground v.1.15,2013-02-17 16:14:00,
2013-02-17 11:17:00,15.9,5.9,30.26,NW,308,3.0,9.0,64,0.00,,,0.00,Wunderground v.1.15,2013-02-17 16:17:00,
2013-02-17 11:18:00,16.0,6.3,30.26,NW,323,6.0,9.0,65,0.00,,,0.00,Wunderground v.1.15,2013-02-17 16:18:00,
2013-02-17 11:19:00,16.1,6.1,30.26,NW,321,4.0,9.0,64,0.00,,,0.00,Wunderground v.1.15,2013-02-17 16:19:00,
2013-02-17 11:22:00,16.0,5.6,30.26,NW,326,1.0,8.0,63,0.00,,,0.00,Wunderground v.1.15,2013-02-17 16:22:00,
2013-02-17 11:23:00,16.0,5.6,30.26,NW,319,6.0,8.0,63,0.00,,,0.00,Wunderground v.1.15,2013-02-17 16:23:00,
2013-02-17 11:25:00,16.0,5.6,30.26,NW,322,2.0,8.0,63,0.00,,,0.00,Wunderground v.1.15,2013-02-17 16:25:00,
2013-02-17 11:27:00,16.2,6.1,30.26,NNE,32,4.0,8.0,64,0.00,,,0.00,Wunderground v.1.15,2013-02-17 16:27:00,
2013-02-17 11:28:00,16.3,6.2,30.26,WNW,301,1.0,8.0,64,0.00,,,0.00,Wunderground v.1.15,2013-02-17 16:28:00,
2013-02-17 11:30:00,16.4,6.3,30.26,WNW,286,2.0,3.0,64,0.00,,,0.00,Wunderground v.1.15,2013-02-17 16:30:00,
2013-02-17 11:32:00,16.4,6.0,30.26,West,271,3.0,9.0,63,0.00,,,0.00,Wunderground v.1.15,2013-02-17 16:32:00,
2013-02-17 11:33:00,16.4,6.0,30.26,WNW,303,3.0,9.0,63,0.00,,,0.00,Wunderground v.1.15,2013-02-17 16:33:00,
2013-02-17 11:34:00,16.3,5.5,30.26,WNW,295,3.0,9.0,62,0.00,,,0.00,Wunderground v.1.15,2013-02-17 16:34:00,
2013-02-17 11:35:00,16.3,5.5,30.26,WNW,298,1.0,9.0,62,0.00,,,0.00,Wunderground v.1.15,2013-02-17 16:35:00,
2013-02-17 11:37:00,16.4,5.6,30.26,West,277,3.0,9.0,62,0.00,,,0.00,Wunderground v.1.15,2013-02-17 16:37:00,
2013-02-17 11:38:00,16.4,5.6,30.26,WNW,303,3.0,9.0,62,0.00,,,0.00,Wunderground v.1.15,2013-02-17 16:38:00,
2013-02-17 11:40:00,16.4,5.6,30.26,NNW,331,3.0,4.0,62,0.00,,,0.00,Wunderground v.1.15,2013-02-17 16:40:00,
2013-02-17 11:42:00,16.4,6.0,30.26,West,275,2.0,5.0,63,0.00,,,0.00,Wunderground v.1.15,2013-02-17 16:42:00,
2013-02-17 11:43:00,16.4,6.0,30.26,North,349,3.0,5.0,63,0.00,,,0.00,Wunderground v.1.15,2013-02-17 16:43:00,
2013-02-17 11:45:00,16.7,6.3,30.26,NW,315,4.0,12.0,63,0.00,,,0.00,Wunderground v.1.15,2013-02-17 16:45:00,
2013-02-17 11:47:00,16.7,5.9,30.26,WNW,300,2.0,12.0,62,0.00,,,0.00,Wunderground v.1.15,2013-02-17 16:47:00,
2013-02-17 11:48:00,16.8,6.0,30.26,NW,316,3.0,12.0,62,0.00,,,0.00,Wunderground v.1.15,2013-02-17 16:48:00,
2013-02-17 11:50:00,16.8,6.0,30.26,WNW,300,3.0,6.0,62,0.00,,,0.00,Wunderground v.1.15,2013-02-17 16:50:00,
2013-02-17 11:53:00,17.0,6.2,30.27,North,355,3.0,6.0,62,0.00,,,0.00,Wunderground v.1.15,2013-02-17 16:53:00,
2013-02-17 11:54:00,17.1,6.7,30.27,NW,307,4.0,6.0,63,0.00,,,0.00,Wunderground v.1.15,2013-02-17 16:54:00,
2013-02-17 11:55:00,17.1,6.3,30.27,WNW,303,2.0,6.0,62,0.00,,,0.00,Wunderground v.1.15,2013-02-17 16:55:00,
2013-02-17 11:58:00,17.1,6.3,30.26,NW,309,2.0,6.0,62,0.00,,,0.00,Wunderground v.1.15,2013-02-17 16:58:00,
2013-02-17 11:59:00,17.2,6.4,30.27,West,271,3.0,6.0,62,0.00,,,0.00,Wunderground v.1.15,2013-02-17 16:59:00,
2013-02-17 12:00:00,17.2,6.4,30.27,West,278,3.0,7.0,62,0.00,,,0.00,Wunderground v.1.15,2013-02-17 17:00:00,
2013-02-17 12:03:00,17.3,6.5,30.27,NNW,334,0.0,7.0,62,0.00,,,0.00,Wunderground v.1.15,2013-02-17 17:03:00,
2013-02-17 12:04:00,17.5,7.0,30.27,North,356,2.0,7.0,63,0.00,,,0.00,Wunderground v.1.15,2013-02-17 17:04:00,
2013-02-17 12:06:00,17.7,7.2,30.27,West,274,1.0,7.0,63,0.00,,,0.00,Wunderground v.1.15,2013-02-17 17:06:00,
2013-02-17 12:08:00,17.7,6.5,30.27,NW,312,3.0,7.0,61,0.00,,,0.00,Wunderground v.1.15,2013-02-17 17:08:00,
2013-02-17 12:10:00,17.6,6.4,30.27,West,264,3.0,3.0,61,0.00,,,0.00,Wunderground v.1.15,2013-02-17 17:10:00,
2013-02-17 12:11:00,17.5,6.3,30.27,West,262,4.0,6.0,61,0.00,,,0.00,Wunderground v.1.15,2013-02-17 17:11:00,
2013-02-17 12:14:00,17.5,6.7,30.27,WSW,256,4.0,9.0,62,0.00,,,0.00,Wunderground v.1.15,2013-02-17 17:14:00,
2013-02-17 12:15:00,17.5,6.7,30.27,West,269,3.0,9.0,62,0.00,,,0.00,Wunderground v.1.15,2013-02-17 17:15:00,
2013-02-17 12:16:00,17.6,6.8,30.27,WNW,297,6.0,9.0,62,0.00,,,0.00,Wunderground v.1.15,2013-02-17 17:16:00,
2013-02-17 12:19:00,17.7,6.9,30.27,WNW,288,4.0,9.0,62,0.00,,,0.00,Wunderground v.1.15,2013-02-17 17:19:00,
2013-02-17 12:20:00,17.7,6.9,30.27,NW,316,6.0,6.0,62,0.00,,,0.00,Wunderground v.1.15,2013-02-17 17:20:00,
2013-02-17 12:21:00,17.7,6.5,30.26,NW,305,1.0,6.0,61,0.00,,,0.00,Wunderground v.1.15,2013-02-17 17:21:00,
2013-02-17 12:25:00,17.7,6.5,30.26,WNW,297,3.0,8.0,61,0.00,,,0.00,Wunderground v.1.15,2013-02-17 17:25:00,
2013-02-17 12:26:00,17.7,6.5,30.26,WSW,252,2.0,8.0,61,0.00,,,0.00,Wunderground v.1.15,2013-02-17 17:26:00,
2013-02-17 12:27:00,17.8,6.6,30.26,West,274,4.0,8.0,61,0.00,,,0.00,Wunderground v.1.15,2013-02-17 17:27:00,
2013-02-17 12:30:00,17.9,6.7,30.26,WNW,293,3.0,3.0,61,0.00,,,0.00,Wunderground v.1.15,2013-02-17 17:30:00,
2013-02-17 12:31:00,17.9,6.7,30.26,West,276,3.0,7.0,61,0.00,,,0.00,Wunderground v.1.15,2013-02-17 17:31:00,
2013-02-17 12:32:00,17.9,6.7,30.26,WNW,300,3.0,7.0,61,0.00,,,0.00,Wunderground v.1.15,2013-02-17 17:32:00,
2013-02-17 12:35:00,18.0,6.4,30.26,WNW,283,2.0,9.0,60,0.00,,,0.00,Wunderground v.1.15,2013-02-17 17:35:00,
2013-02-17 12:37:00,18.1,6.5,30.26,NW,311,3.0,9.0,60,0.00,,,0.00,Wunderground v.1.15,2013-02-17 17:37:00,
2013-02-17 12:40:00,18.1,6.2,30.26,NW,312,2.0,4.0,59,0.00,,,0.00,Wunderground v.1.15,2013-02-17 17:40:00,
2013-02-17 12:42:00,18.3,7.1,30.26,NNE,29,6.0,7.0,61,0.00,,,0.00,Wunderground v.1.15,2013-02-17 17:42:00,
2013-02-17 12:45:00,18.4,6.8,30.25,WNW,294,3.0,7.0,60,0.00,,,0.00,Wunderground v.1.15,2013-02-17 17:45:00,
2013-02-17 12:47:00,18.6,7.0,30.25,NW,308,6.0,7.0,60,0.00,,,0.00,Wunderground v.1.15,2013-02-17 17:47:00,
2013-02-17 12:50:00,18.3,6.0,30.25,WNW,283,2.0,4.0,58,0.00,,,0.00,Wunderground v.1.15,2013-02-17 17:50:00,
2013-02-17 12:51:00,18.3,6.0,30.25,NW,309,2.0,4.0,58,0.00,,,0.00,Wunderground v.1.15,2013-02-17 17:51:00,
2013-02-17 12:52:00,18.2,5.9,30.25,NW,313,6.0,10.0,58,0.00,,,0.00,Wunderground v.1.15,2013-02-17 17:52:00,
2013-02-17 12:56:00,18.4,6.4,30.25,NNE,12,4.0,10.0,59,0.00,,,0.00,Wunderground v.1.15,2013-02-17 17:56:00,
2013-02-17 12:57:00,18.6,6.6,30.25,ENE,59,2.0,10.0,59,0.00,,,0.00,Wunderground v.1.15,2013-02-17 17:57:00,
2013-02-17 13:01:00,18.9,6.5,30.25,West,277,2.0,4.0,58,0.00,,,0.00,Wunderground v.1.15,2013-02-17 18:01:00,
2013-02-17 13:02:00,18.8,6.1,30.26,NW,317,0.0,4.0,57,0.00,,,0.00,Wunderground v.1.15,2013-02-17 18:02:00,
2013-02-17 13:03:00,18.9,6.5,30.26,WSW,250,2.0,4.0,58,0.00,,,0.00,Wunderground v.1.15,2013-02-17 18:03:00,
2013-02-17 13:06:00,19.1,6.7,30.26,NW,321,6.0,7.0,58,0.00,,,0.00,Wunderground v.1.15,2013-02-17 18:06:00,
2013-02-17 13:07:00,19.1,6.7,30.26,WNW,298,6.0,7.0,58,0.00,,,0.00,Wunderground v.1.15,2013-02-17 18:07:00,
2013-02-17 13:08:00,19.2,6.4,30.26,NW,304,2.0,7.0,57,0.00,,,0.00,Wunderground v.1.15,2013-02-17 18:08:00,
2013-02-17 13:11:00,19.2,6.1,30.25,NE,53,3.0,7.0,56,0.00,,,0.00,Wunderground v.1.15,2013-02-17 18:11:00,
2013-02-17 13:12:00,19.2,6.1,30.25,NNE,12,4.0,7.0,56,0.00,,,0.00,Wunderground v.1.15,2013-02-17 18:12:00,
2013-02-17 13:13:00,19.2,6.1,30.25,NW,321,2.0,7.0,56,0.00,,,0.00,Wunderground v.1.15,2013-02-17 18:13:00,
2013-02-17 13:16:00,18.9,5.4,30.26,NNE,12,2.0,7.0,55,0.00,,,0.00,Wunderground v.1.15,2013-02-17 18:16:00,
2013-02-17 13:17:00,18.7,5.2,30.25,WNW,287,5.0,7.0,55,0.00,,,0.00,Wunderground v.1.15,2013-02-17 18:17:00,
2013-02-17 13:18:00,18.7,5.2,30.25,North,354,1.0,7.0,55,0.00,,,0.00,Wunderground v.1.15,2013-02-17 18:18:00,
2013-02-17 13:21:00,18.8,6.1,30.25,WNW,285,4.0,8.0,57,0.00,,,0.00,Wunderground v.1.15,2013-02-17 18:21:00,
2013-02-17 13:22:00,18.8,5.7,30.26,West,271,3.0,8.0,56,0.00,,,0.00,Wunderground v.1.15,2013-02-17 18:22:00,
2013-02-17 13:23:00,18.9,5.4,30.26,NW,308,4.0,8.0,55,0.00,,,0.00,Wunderground v.1.15,2013-02-17 18:23:00,
2013-02-17 13:26:00,19.0,5.9,30.25,WNW,282,3.0,8.0,56,0.00,,,0.00,Wunderground v.1.15,2013-02-17 18:26:00,
2013-02-17 13:28:00,19.0,5.9,30.25,West,263,2.0,8.0,56,0.00,,,0.00,Wunderground v.1.15,2013-02-17 18:28:00,
2013-02-17 13:31:00,19.0,5.5,30.25,West,280,5.0,7.0,55,0.00,,,0.00,Wunderground v.1.15,2013-02-17 18:31:00,
2013-02-17 13:33:00,19.0,5.5,30.25,NW,323,5.0,8.0,55,0.00,,,0.00,Wunderground v.1.15,2013-02-17 18:33:00,
2013-02-17 13:37:00,19.1,5.6,30.25,NW,322,4.0,8.0,55,0.00,,,0.00,Wunderground v.1.15,2013-02-17 18:37:00,
2013-02-17 13:38:00,19.2,6.1,30.25,West,281,2.0,8.0,56,0.00,,,0.00,Wunderground v.1.15,2013-02-17 18:38:00,
2013-02-17 13:42:00,19.9,6.7,30.25,NW,311,4.0,6.0,56,0.00,,,0.00,Wunderground v.1.15,2013-02-17 18:42:00,
2013-02-17 13:43:00,20.0,6.4,30.25,NW,326,4.0,6.0,55,0.00,,,0.00,Wunderground v.1.15,2013-02-17 18:43:00,
2013-02-17 13:47:00,20.1,6.5,30.26,NW,326,6.0,8.0,55,0.00,,,0.00,Wunderground v.1.15,2013-02-17 18:47:00,
2013-02-17 13:48:00,20.1,6.1,30.26,WNW,298,4.0,8.0,54,0.00,,,0.00,Wunderground v.1.15,2013-02-17 18:48:00,
2013-02-17 13:49:00,20.0,6.0,30.26,NW,326,5.0,8.0,54,0.00,,,0.00,Wunderground v.1.15,2013-02-17 18:49:00,
2013-02-17 13:52:00,19.5,5.1,30.26,West,280,2.0,7.0,53,0.00,,,0.00,Wunderground v.1.15,2013-02-17 18:52:00,
2013-02-17 13:53:00,19.4,5.0,30.26,WNW,295,3.0,7.0,53,0.00,,,0.00,Wunderground v.1.15,2013-02-17 18:53:00,
2013-02-17 13:54:00,19.3,4.9,30.26,West,271,2.0,7.0,53,0.00,,,0.00,Wunderground v.1.15,2013-02-17 18:54:00,
2013-02-17 13:57:00,19.3,5.7,30.26,NW,323,3.0,10.0,55,0.00,,,0.00,Wunderground v.1.15,2013-02-17 18:57:00,
2013-02-17 13:58:00,19.2,5.7,30.26,WNW,287,3.0,10.0,55,0.00,,,0.00,Wunderground v.1.15,2013-02-17 18:58:00,
2013-02-17 13:59:00,19.3,5.7,30.26,WSW,249,3.0,10.0,55,0.00,,,0.00,Wunderground v.1.15,2013-02-17 18:59:00,
2013-02-17 14:02:00,19.4,6.2,30.25,NNW,329,3.0,8.0,56,0.00,,,0.00,Wunderground v.1.15,2013-02-17 19:02:00,
2013-02-17 14:03:00,19.4,6.2,30.25,NNW,336,1.0,8.0,56,0.00,,,0.00,Wunderground v.1.15,2013-02-17 19:03:00,
2013-02-17 14:05:00,19.6,6.4,30.26,NW,310,1.0,8.0,56,0.00,,,0.00,Wunderground v.1.15,2013-02-17 19:05:00,
2013-02-17 14:07:00,19.9,6.3,30.26,NW,315,2.0,8.0,55,0.00,,,0.00,Wunderground v.1.15,2013-02-17 19:07:00,
2013-02-17 14:08:00,20.0,6.4,30.26,NW,314,1.0,8.0,55,0.00,,,0.00,Wunderground v.1.15,2013-02-17 19:08:00,
2013-02-17 14:10:00,20.3,7.1,30.26,NW,311,8.0,8.0,56,0.00,,,0.00,Wunderground v.1.15,2013-02-17 19:10:00,
2013-02-17 14:13:00,20.4,6.4,30.26,WNW,291,3.0,8.0,54,0.00,,,0.00,Wunderground v.1.15,2013-02-17 19:13:00,
2013-02-17 14:15:00,20.7,7.1,30.26,WNW,294,2.0,8.0,55,0.00,,,0.00,Wunderground v.1.15,2013-02-17 19:15:00,
2013-02-17 14:18:00,20.6,6.2,30.26,WSW,257,5.0,9.0,53,0.00,,,0.00,Wunderground v.1.15,2013-02-17 19:18:00,
2013-02-17 14:21:00,20.6,6.6,30.25,NW,311,2.0,6.0,54,0.00,,,0.00,Wunderground v.1.15,2013-02-17 19:21:00,
2013-02-17 14:23:00,20.8,6.7,30.25,West,273,4.0,6.0,54,0.00,,,0.00,Wunderground v.1.15,2013-02-17 19:23:00,
2013-02-17 14:26:00,20.9,6.4,30.25,West,274,5.0,7.0,53,0.00,,,0.00,Wunderground v.1.15,2013-02-17 19:26:00,
2013-02-17 14:28:00,20.6,6.2,30.25,NW,315,3.0,7.0,53,0.00,,,0.00,Wunderground v.1.15,2013-02-17 19:28:00,
2013-02-17 14:29:00,20.5,6.1,30.25,NNW,336,4.0,7.0,53,0.00,,,0.00,Wunderground v.1.15,2013-02-17 19:29:00,
2013-02-17 14:31:00,20.2,5.8,30.25,West,270,2.0,10.0,53,0.00,,,0.00,Wunderground v.1.15,2013-02-17 19:31:00,
2013-02-17 14:33:00,19.9,5.5,30.25,West,278,4.0,10.0,53,0.00,,,0.00,Wunderground v.1.15,2013-02-17 19:33:00,
2013-02-17 14:34:00,19.7,5.3,30.25,North,353,3.0,10.0,53,0.00,,,0.00,Wunderground v.1.15,2013-02-17 19:34:00,
2013-02-17 14:36:00,19.5,5.5,30.25,West,267,2.0,10.0,54,0.00,,,0.00,Wunderground v.1.15,2013-02-17 19:36:00,
2013-02-17 14:38:00,19.4,5.8,30.25,NW,319,5.0,10.0,55,0.00,,,0.00,Wunderground v.1.15,2013-02-17 19:38:00,
2013-02-17 14:39:00,19.3,5.3,30.25,NE,50,2.0,10.0,54,0.00,,,0.00,Wunderground v.1.15,2013-02-17 19:39:00,
2013-02-17 14:41:00,19.1,4.8,30.25,West,263,5.0,6.0,53,0.00,,,0.00,Wunderground v.1.15,2013-02-17 19:41:00,
2013-02-17 14:43:00,19.1,5.2,30.25,West,273,3.0,6.0,54,0.00,,,0.00,Wunderground v.1.15,2013-02-17 19:43:00,
2013-02-17 14:44:00,19.0,5.1,30.25,West,281,3.0,6.0,54,0.00,,,0.00,Wunderground v.1.15,2013-02-17 19:44:00,
2013-02-17 14:47:00,18.9,5.0,30.25,West,264,2.0,6.0,54,0.00,,,0.00,Wunderground v.1.15,2013-02-17 19:47:00,
2013-02-17 14:48:00,18.9,5.4,30.25,West,269,2.0,6.0,55,0.00,,,0.00,Wunderground v.1.15,2013-02-17 19:48:00,
2013-02-17 14:49:00,18.9,5.4,30.25,West,271,3.0,6.0,55,0.00,,,0.00,Wunderground v.1.15,2013-02-17 19:49:00,
2013-02-17 14:50:00,18.9,5.4,30.25,WSW,239,4.0,4.0,55,0.00,,,0.00,Wunderground v.1.15,2013-02-17 19:50:00,
2013-02-17 14:52:00,18.8,5.3,30.25,West,269,2.0,9.0,55,0.00,,,0.00,Wunderground v.1.15,2013-02-17 19:52:00,
2013-02-17 14:53:00,18.8,4.9,30.25,WNW,302,3.0,9.0,54,0.00,,,0.00,Wunderground v.1.15,2013-02-17 19:53:00,
2013-02-17 14:55:00,18.9,5.4,30.25,ENE,76,2.0,9.0,55,0.00,,,0.00,Wunderground v.1.15,2013-02-17 19:55:00,
2013-02-17 14:56:00,18.9,5.8,30.25,NW,316,5.0,9.0,56,0.00,,,0.00,Wunderground v.1.15,2013-02-17 19:56:00,
2013-02-17 14:58:00,18.9,5.4,30.25,WNW,294,2.0,9.0,55,0.00,,,0.00,Wunderground v.1.15,2013-02-17 19:58:00,
2013-02-17 15:01:00,18.9,5.4,30.25,NW,306,0.0,4.0,55,0.00,,,0.00,Wunderground v.1.15,2013-02-17 20:01:00,
2013-02-17 15:03:00,19.0,5.5,30.25,WNW,297,2.0,4.0,55,0.00,,,0.00,Wunderground v.1.15,2013-02-17 20:03:00,
2013-02-17 15:04:00,19.0,5.5,30.25,NW,316,2.0,6.0,55,0.00,,,0.00,Wunderground v.1.15,2013-02-17 20:04:00,
2013-02-17 15:06:00,19.0,5.5,30.25,WSW,257,2.0,6.0,55,0.00,,,0.00,Wunderground v.1.15,2013-02-17 20:06:00,
2013-02-17 15:08:00,19.1,6.0,30.26,WNW,301,2.0,6.0,56,0.00,,,0.00,Wunderground v.1.15,2013-02-17 20:08:00,
2013-02-17 15:09:00,19.1,6.0,30.26,NW,318,1.0,6.0,56,0.00,,,0.00,Wunderground v.1.15,2013-02-17 20:09:00,
2013-02-17 15:11:00,19.2,6.1,30.26,NNW,330,2.0,6.0,56,0.00,,,0.00,Wunderground v.1.15,2013-02-17 20:11:00,
2013-02-17 15:13:00,19.1,6.0,30.26,NW,310,0.0,6.0,56,0.00,,,0.00,Wunderground v.1.15,2013-02-17 20:13:00,
2013-02-17 15:14:00,19.2,6.1,30.26,NW,311,0.0,6.0,56,0.00,,,0.00,Wunderground v.1.15,2013-02-17 20:14:00,
2013-02-17 15:16:00,19.2,6.1,30.26,WNW,301,2.0,6.0,56,0.00,,,0.00,Wunderground v.1.15,2013-02-17 20:16:00,
2013-02-17 15:18:00,19.2,6.1,30.26,West,269,1.0,6.0,56,0.00,,,0.00,Wunderground v.1.15,2013-02-17 20:18:00,
2013-02-17 15:19:00,19.2,6.1,30.26,West,274,2.0,6.0,56,0.00,,,0.00,Wunderground v.1.15,2013-02-17 20:19:00,
2013-02-17 15:21:00,19.4,6.2,30.26,West,270,1.0,2.0,56,0.00,,,0.00,Wunderground v.1.15,2013-02-17 20:21:00,
2013-02-17 15:22:00,19.4,6.2,30.26,WNW,293,1.0,2.0,56,0.00,,,0.00,Wunderground v.1.15,2013-02-17 20:22:00,
2013-02-17 15:24:00,19.6,6.4,30.26,West,271,1.0,2.0,56,0.00,,,0.00,Wunderground v.1.15,2013-02-17 20:24:00,
2013-02-17 15:26:00,19.8,6.2,30.26,NW,304,2.0,7.0,55,0.00,,,0.00,Wunderground v.1.15,2013-02-17 20:26:00,
2013-02-17 15:27:00,19.8,6.2,30.26,WSW,249,2.0,7.0,55,0.00,,,0.00,Wunderground v.1.15,2013-02-17 20:27:00,
2013-02-17 15:29:00,19.6,6.0,30.26,NW,316,6.0,7.0,55,0.00,,,0.00,Wunderground v.1.15,2013-02-17 20:29:00,
2013-02-17 15:30:00,19.6,6.0,30.26,WNW,301,1.0,2.0,55,0.00,,,0.00,Wunderground v.1.15,2013-02-17 20:30:00,
2013-02-17 15:32:00,19.5,6.3,30.26,North,6,4.0,5.0,56,0.00,,,0.00,Wunderground v.1.15,2013-02-17 20:32:00,
2013-02-17 15:34:00,19.4,5.8,30.26,WNW,284,3.0,5.0,55,0.00,,,0.00,Wunderground v.1.15,2013-02-17 20:34:00,
2013-02-17 15:35:00,19.3,5.7,30.26,WNW,283,1.0,5.0,55,0.00,,,0.00,Wunderground v.1.15,2013-02-17 20:35:00,
2013-02-17 15:37:00,19.3,5.7,30.26,West,278,3.0,5.0,55,0.00,,,0.00,Wunderground v.1.15,2013-02-17 20:37:00,
2013-02-17 15:39:00,19.2,5.7,30.26,NW,326,3.0,7.0,55,0.00,,,0.00,Wunderground v.1.15,2013-02-17 20:39:00,
2013-02-17 15:40:00,19.2,5.7,30.26,WNW,290,4.0,5.0,55,0.00,,,0.00,Wunderground v.1.15,2013-02-17 20:40:00,
2013-02-17 15:42:00,19.1,5.6,30.26,West,281,2.0,5.0,55,0.00,,,0.00,Wunderground v.1.15,2013-02-17 20:42:00,
2013-02-17 15:43:00,19.1,5.6,30.26,West,278,2.0,5.0,55,0.00,,,0.00,Wunderground v.1.15,2013-02-17 20:43:00,
2013-02-17 15:44:00,19.1,5.6,30.26,West,274,3.0,6.0,55,0.00,,,0.00,Wunderground v.1.15,2013-02-17 20:44:00,
2013-02-17 15:45:00,19.1,5.6,30.26,West,273,3.0,6.0,55,0.00,,,0.00,Wunderground v.1.15,2013-02-17 20:45:00,
2013-02-17 15:47:00,19.2,5.7,30.26,WNW,284,3.0,6.0,55,0.00,,,0.00,Wunderground v.1.15,2013-02-17 20:47:00,
2013-02-17 15:48:00,19.3,5.7,30.26,West,263,4.0,6.0,55,0.00,,,0.00,Wunderground v.1.15,2013-02-17 20:48:00,
2013-02-17 15:49:00,19.3,5.7,30.26,WNW,282,3.0,6.0,55,0.00,,,0.00,Wunderground v.1.15,2013-02-17 20:49:00,
2013-02-17 15:50:00,19.3,5.3,30.26,West,260,3.0,6.0,54,0.00,,,0.00,Wunderground v.1.15,2013-02-17 20:50:00,
2013-02-17 15:52:00,19.4,5.4,30.26,NW,311,2.0,6.0,54,0.00,,,0.00,Wunderground v.1.15,2013-02-17 20:52:00,
2013-02-17 15:53:00,19.5,5.9,30.26,WNW,302,4.0,6.0,55,0.00,,,0.00,Wunderground v.1.15,2013-02-17 20:53:00,
2013-02-17 15:54:00,19.6,6.0,30.26,NW,316,1.0,6.0,55,0.00,,,0.00,Wunderground v.1.15,2013-02-17 20:54:00,
2013-02-17 15:55:00,19.6,6.0,30.26,West,270,2.0,6.0,55,0.00,,,0.00,Wunderground v.1.15,2013-02-17 20:55:00,
2013-02-17 15:58:00,19.8,5.8,30.26,West,280,3.0,7.0,54,0.00,,,0.00,Wunderground v.1.15,2013-02-17 20:58:00,
2013-02-17 16:00:00,19.8,5.8,30.26,West,276,3.0,5.0,54,0.00,,,0.00,Wunderground v.1.15,2013-02-17 21:00:00,
2013-02-17 16:03:00,19.9,5.9,30.26,West,262,2.0,5.0,54,0.00,,,0.00,Wunderground v.1.15,2013-02-17 21:03:00,
2013-02-17 16:05:00,20.1,6.1,30.26,SW,226,3.0,6.0,54,0.00,,,0.00,Wunderground v.1.15,2013-02-17 21:05:00,
2013-02-17 16:06:00,20.2,6.2,30.26,West,270,3.0,6.0,54,0.00,,,0.00,Wunderground v.1.15,2013-02-17 21:06:00,
2013-02-17 16:08:00,20.2,5.8,30.26,SW,225,3.0,6.0,53,0.00,,,0.00,Wunderground v.1.15,2013-02-17 21:08:00,
2013-02-17 16:10:00,20.0,5.6,30.26,West,273,3.0,4.0,53,0.00,,,0.00,Wunderground v.1.15,2013-02-17 21:10:00,
2013-02-17 16:11:00,20.0,5.6,30.26,West,276,4.0,4.0,53,0.00,,,0.00,Wunderground v.1.15,2013-02-17 21:11:00,
2013-02-17 16:13:00,20.1,6.1,30.26,West,274,2.0,4.0,54,0.00,,,0.00,Wunderground v.1.15,2013-02-17 21:13:00,
2013-02-17 16:14:00,20.1,6.1,30.26,WNW,291,3.0,5.0,54,0.00,,,0.00,Wunderground v.1.15,2013-02-17 21:14:00,
2013-02-17 16:15:00,20.1,5.7,30.26,NW,316,8.0,8.0,53,0.00,,,0.00,Wunderground v.1.15,2013-02-17 21:15:00,
2013-02-17 16:16:00,20.0,5.6,30.26,West,278,4.0,11.0,53,0.00,,,0.00,Wunderground v.1.15,2013-02-17 21:16:00,
2013-02-17 16:18:00,20.0,5.6,30.26,WNW,284,3.0,11.0,53,0.00,,,0.00,Wunderground v.1.15,2013-02-17 21:18:00,
2013-02-17 16:19:00,20.0,5.6,30.26,West,281,3.0,11.0,53,0.00,,,0.00,Wunderground v.1.15,2013-02-17 21:19:00,
2013-02-17 16:21:00,20.1,5.7,30.26,WNW,295,2.0,7.0,53,0.00,,,0.00,Wunderground v.1.15,2013-02-17 21:21:00,
2013-02-17 16:23:00,20.2,5.8,30.26,West,267,3.0,7.0,53,0.00,,,0.00,Wunderground v.1.15,2013-02-17 21:23:00,
2013-02-17 16:24:00,20.2,5.8,30.26,West,277,4.0,7.0,53,0.00,,,0.00,Wunderground v.1.15,2013-02-17 21:24:00,
2013-02-17 16:26:00,20.1,5.7,30.26,West,260,3.0,7.0,53,0.00,,,0.00,Wunderground v.1.15,2013-02-17 21:26:00,
2013-02-17 16:27:00,20.1,5.7,30.26,West,264,3.0,7.0,53,0.00,,,0.00,Wunderground v.1.15,2013-02-17 21:27:00,
2013-02-17 16:28:00,20.0,5.6,30.26,West,274,2.0,7.0,53,0.00,,,0.00,Wunderground v.1.15,2013-02-17 21:28:00,
2013-02-17 16:29:00,20.0,5.6,30.26,WNW,285,2.0,7.0,53,0.00,,,0.00,Wunderground v.1.15,2013-02-17 21:29:00,
2013-02-17 16:31:00,20.1,6.1,30.26,West,266,4.0,4.0,54,0.00,,,0.00,Wunderground v.1.15,2013-02-17 21:31:00,
2013-02-17 16:32:00,20.1,6.1,30.26,NW,325,3.0,4.0,54,0.00,,,0.00,Wunderground v.1.15,2013-02-17 21:32:00,
2013-02-17 16:33:00,20.1,6.1,30.26,WNW,282,1.0,4.0,54,0.00,,,0.00,Wunderground v.1.15,2013-02-17 21:33:00,
2013-02-17 16:34:00,20.1,6.1,30.26,NW,304,2.0,4.0,54,0.00,,,0.00,Wunderground v.1.15,2013-02-17 21:34:00,
2013-02-17 16:36:00,20.1,6.1,30.26,WNW,301,1.0,4.0,54,0.00,,,0.00,Wunderground v.1.15,2013-02-17 21:36:00,
2013-02-17 16:37:00,20.1,5.7,30.26,West,273,1.0,4.0,53,0.00,,,0.00,Wunderground v.1.15,2013-02-17 21:37:00,
2013-02-17 16:39:00,20.1,5.7,30.26,WNW,301,6.0,6.0,53,0.00,,,0.00,Wunderground v.1.15,2013-02-17 21:39:00,
2013-02-17 16:42:00,20.1,5.7,30.26,NNW,329,2.0,5.0,53,0.00,,,0.00,Wunderground v.1.15,2013-02-17 21:42:00,
2013-02-17 16:44:00,20.0,6.0,30.26,WNW,301,1.0,5.0,54,0.00,,,0.00,Wunderground v.1.15,2013-02-17 21:44:00,
2013-02-17 16:47:00,20.0,6.0,30.26,West,270,3.0,5.0,54,0.00,,,0.00,Wunderground v.1.15,2013-02-17 21:47:00,
2013-02-17 16:49:00,19.8,5.8,30.26,NW,315,2.0,5.0,54,0.00,,,0.00,Wunderground v.1.15,2013-02-17 21:49:00,
2013-02-17 16:50:00,19.7,5.7,30.26,WNW,283,2.0,2.0,54,0.00,,,0.00,Wunderground v.1.15,2013-02-17 21:50:00,
2013-02-17 16:52:00,19.6,5.6,30.26,NW,312,0.0,9.0,54,0.00,,,0.00,Wunderground v.1.15,2013-02-17 21:52:00,
2013-02-17 16:54:00,19.6,6.0,30.26,North,11,1.0,9.0,55,0.00,,,0.00,Wunderground v.1.15,2013-02-17 21:54:00,
2013-02-17 16:58:00,19.6,6.0,30.26,NW,308,4.0,9.0,55,0.00,,,0.00,Wunderground v.1.15,2013-02-17 21:58:00,
2013-02-17 16:59:00,19.6,5.6,30.26,North,349,1.0,9.0,54,0.00,,,0.00,Wunderground v.1.15,2013-02-17 21:59:00,
2013-02-17 17:00:00,19.6,5.6,30.26,NNE,23,2.0,2.0,54,0.00,,,0.00,Wunderground v.1.15,2013-02-17 22:00:00,
2013-02-17 17:03:00,19.6,5.6,30.26,NW,307,0.0,3.0,54,0.00,,,0.00,Wunderground v.1.15,2013-02-17 22:03:00,
2013-02-17 17:05:00,19.6,6.0,30.26,WNW,294,0.0,3.0,55,0.00,,,0.00,Wunderground v.1.15,2013-02-17 22:05:00,
2013-02-17 17:08:00,19.7,5.7,30.26,WNW,294,1.0,3.0,54,0.00,,,0.00,Wunderground v.1.15,2013-02-17 22:08:00,
2013-02-17 17:10:00,19.8,6.2,30.26,West,270,1.0,1.0,55,0.00,,,0.00,Wunderground v.1.15,2013-02-17 22:10:00,
2013-02-17 17:13:00,19.7,6.1,30.26,NW,312,1.0,2.0,55,0.00,,,0.00,Wunderground v.1.15,2013-02-17 22:13:00,
2013-02-17 17:14:00,19.7,6.1,30.26,NW,312,0.0,2.0,55,0.00,,,0.00,Wunderground v.1.15,2013-02-17 22:14:00,
2013-02-17 17:15:00,19.7,6.1,30.26,WNW,298,3.0,3.0,55,0.00,,,0.00,Wunderground v.1.15,2013-02-17 22:15:00,
2013-02-17 17:19:00,19.5,6.3,30.26,West,270,2.0,5.0,56,0.00,,,0.00,Wunderground v.1.15,2013-02-17 22:19:00,
2013-02-17 17:20:00,19.5,6.3,30.26,NW,321,2.0,2.0,56,0.00,,,0.00,Wunderground v.1.15,2013-02-17 22:20:00,
2013-02-17 17:21:00,19.5,6.3,30.26,NNW,339,0.0,2.0,56,0.00,,,0.00,Wunderground v.1.15,2013-02-17 22:21:00,
2013-02-17 17:24:00,19.5,5.9,30.26,NW,316,2.0,5.0,55,0.00,,,0.00,Wunderground v.1.15,2013-02-17 22:24:00,
2013-02-17 17:25:00,19.4,5.8,30.27,NW,311,1.0,5.0,55,0.00,,,0.00,Wunderground v.1.15,2013-02-17 22:25:00,
2013-02-17 17:26:00,19.4,5.8,30.27,NW,313,0.0,5.0,55,0.00,,,0.00,Wunderground v.1.15,2013-02-17 22:26:00,
2013-02-17 17:29:00,19.3,6.1,30.27,NNW,333,1.0,5.0,56,0.00,,,0.00,Wunderground v.1.15,2013-02-17 22:29:00,
2013-02-17 17:30:00,19.3,6.1,30.27,NNW,332,0.0,2.0,56,0.00,,,0.00,Wunderground v.1.15,2013-02-17 22:30:00,
2013-02-17 17:31:00,19.3,6.1,30.27,NNW,332,0.0,2.0,56,0.00,,,0.00,Wunderground v.1.15,2013-02-17 22:31:00,
2013-02-17 17:34:00,19.2,6.1,30.27,West,269,1.0,2.0,56,0.00,,,0.00,Wunderground v.1.15,2013-02-17 22:34:00,
2013-02-17 17:35:00,19.1,6.0,30.27,WNW,284,1.0,2.0,56,0.00,,,0.00,Wunderground v.1.15,2013-02-17 22:35:00,
2013-02-17 17:36:00,19.2,6.1,30.27,NW,306,1.0,2.0,56,0.00,,,0.00,Wunderground v.1.15,2013-02-17 22:36:00,
2013-02-17 17:39:00,19.0,5.9,30.27,WNW,297,2.0,3.0,56,0.00,,,0.00,Wunderground v.1.15,2013-02-17 22:39:00,
2013-02-17 17:41:00,19.0,5.9,30.27,NW,320,3.0,3.0,56,0.00,,,0.00,Wunderground v.1.15,2013-02-17 22:41:00,
2013-02-17 17:45:00,19.0,6.3,30.27,NNW,336,2.0,4.0,57,0.00,,,0.00,Wunderground v.1.15,2013-02-17 22:45:00,
2013-02-17 17:46:00,19.0,6.3,30.27,NW,308,0.0,4.0,57,0.00,,,0.00,Wunderground v.1.15,2013-02-17 22:46:00,
2013-02-17 17:50:00,19.1,6.0,30.27,NW,315,1.0,1.0,56,0.00,,,0.00,Wunderground v.1.15,2013-02-17 22:50:00,
2013-02-17 17:51:00,19.1,6.0,30.27,NW,315,1.0,1.0,56,0.00,,,0.00,Wunderground v.1.15,2013-02-17 22:51:00,
2013-02-17 17:55:00,19.0,5.9,30.27,NW,321,0.0,2.0,56,0.00,,,0.00,Wunderground v.1.15,2013-02-17 22:55:00,
2013-02-17 17:56:00,19.0,5.9,30.27,NNW,329,1.0,2.0,56,0.00,,,0.00,Wunderground v.1.15,2013-02-17 22:56:00,
2013-02-17 18:00:00,18.9,6.2,30.27,NW,322,1.0,2.0,57,0.00,,,0.00,Wunderground v.1.15,2013-02-17 23:00:00,
2013-02-17 18:01:00,18.9,6.2,30.27,West,281,0.0,2.0,57,0.00,,,0.00,Wunderground v.1.15,2013-02-17 23:01:00,
2013-02-17 18:06:00,18.6,5.9,30.27,WNW,292,1.0,2.0,57,0.00,,,0.00,Wunderground v.1.15,2013-02-17 23:06:00,
2013-02-17 18:07:00,18.6,5.9,30.27,WNW,296,0.0,2.0,57,0.00,,,0.00,Wunderground v.1.15,2013-02-17 23:07:00,
2013-02-17 18:11:00,18.4,5.7,30.28,NW,311,1.0,3.0,57,0.00,,,0.00,Wunderground v.1.15,2013-02-17 23:11:00,
2013-02-17 18:12:00,18.3,5.6,30.28,NW,311,1.0,3.0,57,0.00,,,0.00,Wunderground v.1.15,2013-02-17 23:12:00,
2013-02-17 18:16:00,18.2,5.9,30.28,NW,311,0.0,3.0,58,0.00,,,0.00,Wunderground v.1.15,2013-02-17 23:16:00,
2013-02-17 18:17:00,18.1,5.8,30.28,NW,312,0.0,3.0,58,0.00,,,0.00,Wunderground v.1.15,2013-02-17 23:17:00,
2013-02-17 18:21:00,18.1,5.8,30.28,NW,304,0.0,1.0,58,0.00,,,0.00,Wunderground v.1.15,2013-02-17 23:21:00,
2013-02-17 18:22:00,18.1,5.8,30.28,NW,304,0.0,1.0,58,0.00,,,0.00,Wunderground v.1.15,2013-02-17 23:22:00,
2013-02-17 18:26:00,18.1,5.8,30.28,West,260,0.0,2.0,58,0.00,,,0.00,Wunderground v.1.15,2013-02-17 23:26:00,
2013-02-17 18:27:00,18.1,5.8,30.28,West,259,0.0,2.0,58,0.00,,,0.00,Wunderground v.1.15,2013-02-17 23:27:00,
2013-02-17 18:31:00,17.9,5.6,30.28,West,278,0.0,1.0,58,0.00,,,0.00,Wunderground v.1.15,2013-02-17 23:31:00,
2013-02-17 18:32:00,17.8,5.5,30.28,West,278,0.0,1.0,58,0.00,,,0.00,Wunderground v.1.15,2013-02-17 23:32:00,
2013-02-17 18:33:00,17.7,5.8,30.28,West,278,0.0,1.0,59,0.00,,,0.00,Wunderground v.1.15,2013-02-17 23:33:00,
2013-02-17 18:36:00,17.5,5.6,30.28,West,278,0.0,1.0,59,0.00,,,0.00,Wunderground v.1.15,2013-02-17 23:36:00,
2013-02-17 18:37:00,17.5,5.6,30.28,West,278,0.0,1.0,59,0.00,,,0.00,Wunderground v.1.15,2013-02-17 23:37:00,
2013-02-17 18:38:00,17.4,5.5,30.28,West,278,0.0,1.0,59,0.00,,,0.00,Wunderground v.1.15,2013-02-17 23:38:00,
2013-02-17 18:41:00,17.0,5.1,30.28,West,278,0.0,0.0,59,0.00,,,0.00,Wunderground v.1.15,2013-02-17 23:41:00,
2013-02-17 18:42:00,17.0,5.1,30.28,West,278,0.0,0.0,59,0.00,,,0.00,Wunderground v.1.15,2013-02-17 23:42:00,
2013-02-17 18:43:00,16.9,5.0,30.28,West,278,0.0,0.0,59,0.00,,,0.00,Wunderground v.1.15,2013-02-17 23:43:00,
2013-02-17 18:46:00,16.4,4.9,30.28,West,278,0.0,0.0,60,0.00,,,0.00,Wunderground v.1.15,2013-02-17 23:46:00,
2013-02-17 18:47:00,16.4,4.9,30.28,West,278,0.0,0.0,60,0.00,,,0.00,Wunderground v.1.15,2013-02-17 23:47:00,
2013-02-17 18:48:00,16.3,4.8,30.28,West,278,0.0,0.0,60,0.00,,,0.00,Wunderground v.1.15,2013-02-17 23:48:00,
2013-02-17 18:51:00,15.8,4.4,30.28,West,278,0.0,0.0,60,0.00,,,0.00,Wunderground v.1.15,2013-02-17 23:51:00,
2013-02-17 18:52:00,15.8,4.4,30.28,West,278,0.0,0.0,60,0.00,,,0.00,Wunderground v.1.15,2013-02-17 23:52:00,
2013-02-17 18:53:00,15.6,4.5,30.28,West,278,0.0,0.0,61,0.00,,,0.00,Wunderground v.1.15,2013-02-17 23:53:00,
2013-02-17 18:54:00,15.5,4.8,30.28,West,278,0.0,0.0,62,0.00,,,0.00,Wunderground v.1.15,2013-02-17 23:54:00,
2013-02-17 18:56:00,15.3,4.9,30.28,West,278,0.0,0.0,63,0.00,,,0.00,Wunderground v.1.15,2013-02-17 23:56:00,
2013-02-17 18:57:00,15.2,4.9,30.28,West,278,0.0,0.0,63,0.00,,,0.00,Wunderground v.1.15,2013-02-17 23:57:00,
2013-02-17 18:58:00,15.1,4.8,30.28,West,278,0.0,0.0,63,0.00,,,0.00,Wunderground v.1.15,2013-02-17 23:58:00,
2013-02-17 18:59:00,15.1,4.8,30.28,West,278,0.0,0.0,63,0.00,,,0.00,Wunderground v.1.15,2013-02-17 23:59:00,
2013-02-17 19:01:00,14.9,4.9,30.28,West,278,0.0,0.0,64,0.00,,,0.00,Wunderground v.1.15,2013-02-18 00:01:00,
2013-02-17 19:02:00,14.9,4.9,30.28,West,278,0.0,0.0,64,0.00,,,0.00,Wunderground v.1.15,2013-02-18 00:02:00,
2013-02-17 19:03:00,14.8,4.8,30.28,West,278,0.0,0.0,64,0.00,,,0.00,Wunderground v.1.15,2013-02-18 00:03:00,
2013-02-17 19:04:00,14.8,4.8,30.28,West,278,0.0,0.0,64,0.00,,,0.00,Wunderground v.1.15,2013-02-18 00:04:00,
2013-02-17 19:06:00,14.6,4.6,30.28,West,278,0.0,0.0,64,0.00,,,0.00,Wunderground v.1.15,2013-02-18 00:06:00,
2013-02-17 19:07:00,14.5,4.5,30.28,West,278,0.0,0.0,64,0.00,,,0.00,Wunderground v.1.15,2013-02-18 00:07:00,
2013-02-17 19:08:00,14.4,4.4,30.28,West,278,0.0,0.0,64,0.00,,,0.00,Wunderground v.1.15,2013-02-18 00:08:00,
2013-02-17 19:09:00,14.3,4.3,30.28,West,278,0.0,0.0,64,0.00,,,0.00,Wunderground v.1.15,2013-02-18 00:09:00,
2013-02-17 19:12:00,14.1,4.5,30.28,West,278,0.0,0.0,65,0.00,,,0.00,Wunderground v.1.15,2013-02-18 00:12:00,
2013-02-17 19:13:00,14.0,4.7,30.28,West,278,0.0,0.0,66,0.00,,,0.00,Wunderground v.1.15,2013-02-18 00:13:00,
2013-02-17 19:14:00,14.0,4.7,30.28,West,278,0.0,0.0,66,0.00,,,0.00,Wunderground v.1.15,2013-02-18 00:14:00,
2013-02-17 19:17:00,13.9,4.6,30.28,West,278,0.0,0.0,66,0.00,,,0.00,Wunderground v.1.15,2013-02-18 00:17:00,
2013-02-17 19:19:00,13.8,4.5,30.28,West,278,0.0,0.0,66,0.00,,,0.00,Wunderground v.1.15,2013-02-18 00:19:00,
2013-02-17 19:22:00,13.8,5.2,30.28,West,278,0.0,0.0,68,0.00,,,0.00,Wunderground v.1.15,2013-02-18 00:22:00,
2013-02-17 19:24:00,13.8,5.2,30.28,West,278,0.0,0.0,68,0.00,,,0.00,Wunderground v.1.15,2013-02-18 00:24:00,
2013-02-17 19:28:00,13.7,5.1,30.28,West,278,0.0,0.0,68,0.00,,,0.00,Wunderground v.1.15,2013-02-18 00:28:00,
2013-02-17 19:29:00,13.8,5.2,30.28,West,278,0.0,0.0,68,0.00,,,0.00,Wunderground v.1.15,2013-02-18 00:29:00,
2013-02-17 19:33:00,13.9,5.3,30.28,West,278,0.0,0.0,68,0.00,,,0.00,Wunderground v.1.15,2013-02-18 00:33:00,
2013-02-17 19:34:00,13.9,5.3,30.28,West,278,0.0,0.0,68,0.00,,,0.00,Wunderground v.1.15,2013-02-18 00:34:00,
2013-02-17 19:35:00,13.9,5.3,30.28,West,278,0.0,0.0,68,0.00,,,0.00,Wunderground v.1.15,2013-02-18 00:35:00,
2013-02-17 19:38:00,13.9,5.3,30.28,West,278,0.0,0.0,68,0.00,,,0.00,Wunderground v.1.15,2013-02-18 00:38:00,
2013-02-17 19:40:00,13.8,5.2,30.27,West,278,0.0,0.0,68,0.00,,,0.00,Wunderground v.1.15,2013-02-18 00:40:00,
2013-02-17 19:43:00,13.7,5.1,30.28,West,278,0.0,0.0,68,0.00,,,0.00,Wunderground v.1.15,2013-02-18 00:43:00,
2013-02-17 19:45:00,13.7,5.4,30.28,West,278,0.0,0.0,69,0.00,,,0.00,Wunderground v.1.15,2013-02-18 00:45:00,
2013-02-17 19:48:00,13.5,5.2,30.27,West,278,0.0,0.0,69,0.00,,,0.00,Wunderground v.1.15,2013-02-18 00:48:00,
2013-02-17 19:50:00,13.4,5.1,30.28,West,278,0.0,0.0,69,0.00,,,0.00,Wunderground v.1.15,2013-02-18 00:50:00,
2013-02-17 19:53:00,13.3,5.3,30.28,West,278,0.0,0.0,70,0.00,,,0.00,Wunderground v.1.15,2013-02-18 00:53:00,
2013-02-17 19:54:00,13.3,5.3,30.28,West,278,0.0,0.0,70,0.00,,,0.00,Wunderground v.1.15,2013-02-18 00:54:00,
2013-02-17 19:55:00,13.2,5.2,30.27,West,278,0.0,0.0,70,0.00,,,0.00,Wunderground v.1.15,2013-02-18 00:55:00,
2013-02-17 19:58:00,13.2,5.2,30.28,West,278,0.0,0.0,70,0.00,,,0.00,Wunderground v.1.15,2013-02-18 00:58:00,
2013-02-17 19:59:00,13.1,5.1,30.28,West,278,0.0,0.0,70,0.00,,,0.00,Wunderground v.1.15,2013-02-18 00:59:00,
2013-02-17 20:00:00,13.1,5.1,30.28,West,278,0.0,0.0,70,0.00,,,0.00,Wunderground v.1.15,2013-02-18 01:00:00,
2013-02-17 20:01:00,13.0,5.0,30.28,West,278,0.0,0.0,70,0.00,,,0.00,Wunderground v.1.15,2013-02-18 01:01:00,
2013-02-17 20:03:00,12.9,5.0,30.28,West,278,0.0,0.0,70,0.00,,,0.00,Wunderground v.1.15,2013-02-18 01:03:00,
2013-02-17 20:04:00,12.8,4.9,30.28,West,278,0.0,0.0,70,0.00,,,0.00,Wunderground v.1.15,2013-02-18 01:04:00,
2013-02-17 20:05:00,12.8,4.9,30.28,West,278,0.0,0.0,70,0.00,,,0.00,Wunderground v.1.15,2013-02-18 01:05:00,
2013-02-17 20:06:00,12.7,5.1,30.28,West,278,0.0,0.0,71,0.00,,,0.00,Wunderground v.1.15,2013-02-18 01:06:00,
2013-02-17 20:09:00,12.6,5.0,30.28,West,278,0.0,0.0,71,0.00,,,0.00,Wunderground v.1.15,2013-02-18 01:09:00,
2013-02-17 20:10:00,12.5,5.2,30.28,West,278,0.0,0.0,72,0.00,,,0.00,Wunderground v.1.15,2013-02-18 01:10:00,
2013-02-17 20:11:00,12.5,5.2,30.28,West,278,0.0,0.0,72,0.00,,,0.00,Wunderground v.1.15,2013-02-18 01:11:00,
2013-02-17 20:14:00,12.5,5.2,30.28,West,278,0.0,0.0,72,0.00,,,0.00,Wunderground v.1.15,2013-02-18 01:14:00,
2013-02-17 20:16:00,12.4,5.1,30.28,West,278,0.0,0.0,72,0.00,,,0.00,Wunderground v.1.15,2013-02-18 01:16:00,
2013-02-17 20:19:00,12.1,4.8,30.28,West,278,0.0,0.0,72,0.00,,,0.00,Wunderground v.1.15,2013-02-18 01:19:00,
2013-02-17 20:20:00,12.0,4.7,30.28,West,278,0.0,0.0,72,0.00,,,0.00,Wunderground v.1.15,2013-02-18 01:20:00,
2013-02-17 20:21:00,12.0,4.7,30.28,West,278,0.0,0.0,72,0.00,,,0.00,Wunderground v.1.15,2013-02-18 01:21:00,
2013-02-17 20:24:00,11.7,4.4,30.28,West,278,0.0,0.0,72,0.00,,,0.00,Wunderground v.1.15,2013-02-18 01:24:00,
2013-02-17 20:25:00,11.6,4.3,30.28,West,278,0.0,0.0,72,0.00,,,0.00,Wunderground v.1.15,2013-02-18 01:25:00,
2013-02-17 20:26:00,11.5,4.2,30.28,West,278,0.0,0.0,72,0.00,,,0.00,Wunderground v.1.15,2013-02-18 01:26:00,
2013-02-17 20:29:00,11.2,4.2,30.28,West,278,0.0,0.0,73,0.00,,,0.00,Wunderground v.1.15,2013-02-18 01:29:00,
2013-02-17 20:30:00,11.1,4.1,30.28,West,278,0.0,0.0,73,0.00,,,0.00,Wunderground v.1.15,2013-02-18 01:30:00,
2013-02-17 20:31:00,11.0,4.0,30.28,West,278,0.0,0.0,73,0.00,,,0.00,Wunderground v.1.15,2013-02-18 01:31:00,
2013-02-17 20:32:00,11.0,4.0,30.28,West,278,0.0,0.0,73,0.00,,,0.00,Wunderground v.1.15,2013-02-18 01:32:00,
2013-02-17 20:34:00,10.8,3.8,30.28,West,278,0.0,0.0,73,0.00,,,0.00,Wunderground v.1.15,2013-02-18 01:34:00,
2013-02-17 20:35:00,10.7,3.7,30.28,West,278,0.0,0.0,73,0.00,,,0.00,Wunderground v.1.15,2013-02-18 01:35:00,
2013-02-17 20:36:00,10.7,3.7,30.28,West,278,0.0,0.0,73,0.00,,,0.00,Wunderground v.1.15,2013-02-18 01:36:00,
2013-02-17 20:37:00,10.6,3.6,30.28,West,278,0.0,0.0,73,0.00,,,0.00,Wunderground v.1.15,2013-02-18 01:37:00,
2013-02-17 20:39:00,10.4,3.5,30.28,West,278,0.0,0.0,73,0.00,,,0.00,Wunderground v.1.15,2013-02-18 01:39:00,
2013-02-17 20:40:00,10.3,3.7,30.28,West,278,0.0,0.0,74,0.00,,,0.00,Wunderground v.1.15,2013-02-18 01:40:00,
2013-02-17 20:41:00,10.3,3.7,30.28,West,278,0.0,0.0,74,0.00,,,0.00,Wunderground v.1.15,2013-02-18 01:41:00,
2013-02-17 20:42:00,10.3,3.7,30.28,West,278,0.0,0.0,74,0.00,,,0.00,Wunderground v.1.15,2013-02-18 01:42:00,
2013-02-17 20:44:00,10.1,3.5,30.29,West,278,0.0,0.0,74,0.00,,,0.00,Wunderground v.1.15,2013-02-18 01:44:00,
2013-02-17 20:46:00,10.0,3.7,30.29,West,278,0.0,0.0,75,0.00,,,0.00,Wunderground v.1.15,2013-02-18 01:46:00,
2013-02-17 20:47:00,10.0,3.7,30.29,West,278,0.0,0.0,75,0.00,,,0.00,Wunderground v.1.15,2013-02-18 01:47:00,
2013-02-17 20:49:00,9.9,3.6,30.29,West,278,0.0,0.0,75,0.00,,,0.00,Wunderground v.1.15,2013-02-18 01:49:00,
2013-02-17 20:51:00,9.8,3.5,30.29,West,278,0.0,0.0,75,0.00,,,0.00,Wunderground v.1.15,2013-02-18 01:51:00,
2013-02-17 20:52:00,9.8,3.5,30.29,West,278,0.0,0.0,75,0.00,,,0.00,Wunderground v.1.15,2013-02-18 01:52:00,
2013-02-17 20:54:00,9.9,4.1,30.29,West,278,0.0,0.0,77,0.00,,,0.00,Wunderground v.1.15,2013-02-18 01:54:00,
2013-02-17 20:56:00,9.9,4.1,30.29,West,278,0.0,0.0,77,0.00,,,0.00,Wunderground v.1.15,2013-02-18 01:56:00,
2013-02-17 20:57:00,9.9,4.1,30.29,West,278,0.0,0.0,77,0.00,,,0.00,Wunderground v.1.15,2013-02-18 01:57:00,
2013-02-17 20:59:00,10.0,4.5,30.29,West,278,0.0,0.0,78,0.00,,,0.00,Wunderground v.1.15,2013-02-18 01:59:00,
2013-02-17 21:01:00,10.1,4.6,30.29,West,278,0.0,0.0,78,0.00,,,0.00,Wunderground v.1.15,2013-02-18 02:01:00,
2013-02-17 21:02:00,10.1,4.6,30.29,West,278,0.0,0.0,78,0.00,,,0.00,Wunderground v.1.15,2013-02-18 02:02:00,
2013-02-17 21:04:00,10.0,4.2,30.29,West,278,0.0,0.0,77,0.00,,,0.00,Wunderground v.1.15,2013-02-18 02:04:00,
2013-02-17 21:06:00,9.9,4.1,30.30,West,278,0.0,0.0,77,0.00,,,0.00,Wunderground v.1.15,2013-02-18 02:06:00,
2013-02-17 21:07:00,9.8,4.0,30.30,West,278,0.0,0.0,77,0.00,,,0.00,Wunderground v.1.15,2013-02-18 02:07:00,
2013-02-17 21:10:00,9.6,3.8,30.30,West,278,0.0,0.0,77,0.00,,,0.00,Wunderground v.1.15,2013-02-18 02:10:00,
2013-02-17 21:12:00,9.5,4.0,30.30,West,278,0.0,0.0,78,0.00,,,0.00,Wunderground v.1.15,2013-02-18 02:12:00,
2013-02-17 21:13:00,9.4,3.9,30.30,West,278,0.0,0.0,78,0.00,,,0.00,Wunderground v.1.15,2013-02-18 02:13:00,
2013-02-17 21:15:00,9.2,3.7,30.30,West,278,0.0,0.0,78,0.00,,,0.00,Wunderground v.1.15,2013-02-18 02:15:00,
2013-02-17 21:17:00,9.0,3.3,30.30,West,278,0.0,0.0,77,0.00,,,0.00,Wunderground v.1.15,2013-02-18 02:17:00,
2013-02-17 21:18:00,8.9,3.4,30.30,West,278,0.0,0.0,78,0.00,,,0.00,Wunderground v.1.15,2013-02-18 02:18:00,
2013-02-17 21:20:00,8.8,3.3,30.30,West,278,0.0,0.0,78,0.00,,,0.00,Wunderground v.1.15,2013-02-18 02:20:00,
2013-02-17 21:22:00,8.8,3.6,30.30,West,278,0.0,0.0,79,0.00,,,0.00,Wunderground v.1.15,2013-02-18 02:22:00,
2013-02-17 21:23:00,8.8,3.6,30.30,West,278,0.0,0.0,79,0.00,,,0.00,Wunderground v.1.15,2013-02-18 02:23:00,
2013-02-17 21:25:00,8.8,3.6,30.30,West,278,0.0,0.0,79,0.00,,,0.00,Wunderground v.1.15,2013-02-18 02:25:00,
2013-02-17 21:28:00,8.9,4.0,30.30,West,278,0.0,0.0,80,0.00,,,0.00,Wunderground v.1.15,2013-02-18 02:28:00,
2013-02-17 21:31:00,9.0,4.1,30.30,West,278,0.0,0.0,80,0.00,,,0.00,Wunderground v.1.15,2013-02-18 02:31:00,
2013-02-17 21:33:00,9.1,4.5,30.30,West,278,0.0,0.0,81,0.00,,,0.00,Wunderground v.1.15,2013-02-18 02:33:00,
2013-02-17 21:36:00,9.1,4.5,30.30,West,278,0.0,0.0,81,0.00,,,0.00,Wunderground v.1.15,2013-02-18 02:36:00,
2013-02-17 21:38:00,9.1,4.5,30.30,West,278,0.0,0.0,81,0.00,,,0.00,Wunderground v.1.15,2013-02-18 02:38:00,
2013-02-17 21:39:00,9.1,4.5,30.30,West,278,0.0,0.0,81,0.00,,,0.00,Wunderground v.1.15,2013-02-18 02:39:00,
2013-02-17 21:41:00,9.1,4.5,30.30,West,278,0.0,0.0,81,0.00,,,0.00,Wunderground v.1.15,2013-02-18 02:41:00,
2013-02-17 21:43:00,9.1,4.5,30.30,West,278,0.0,0.0,81,0.00,,,0.00,Wunderground v.1.15,2013-02-18 02:43:00,
2013-02-17 21:44:00,9.1,4.5,30.30,West,278,0.0,0.0,81,0.00,,,0.00,Wunderground v.1.15,2013-02-18 02:44:00,
2013-02-17 21:46:00,9.1,4.7,30.30,West,278,0.0,0.0,82,0.00,,,0.00,Wunderground v.1.15,2013-02-18 02:46:00,
2013-02-17 21:49:00,9.0,4.6,30.30,West,278,0.0,0.0,82,0.00,,,0.00,Wunderground v.1.15,2013-02-18 02:49:00,
2013-02-17 21:52:00,9.0,4.6,30.30,West,278,0.0,0.0,82,0.00,,,0.00,Wunderground v.1.15,2013-02-18 02:52:00,
2013-02-17 21:54:00,8.9,4.5,30.30,West,278,0.0,0.0,82,0.00,,,0.00,Wunderground v.1.15,2013-02-18 02:54:00,
2013-02-17 21:57:00,8.9,4.5,30.30,West,278,0.0,0.0,82,0.00,,,0.00,Wunderground v.1.15,2013-02-18 02:57:00,
2013-02-17 21:59:00,8.8,4.4,30.30,West,278,0.0,0.0,82,0.00,,,0.00,Wunderground v.1.15,2013-02-18 02:59:00,
2013-02-17 22:02:00,8.8,4.7,30.30,West,278,0.0,0.0,83,0.00,,,0.00,Wunderground v.1.15,2013-02-18 03:02:00,
2013-02-17 22:04:00,8.8,4.7,30.30,West,278,0.0,0.0,83,0.00,,,0.00,Wunderground v.1.15,2013-02-18 03:04:00,
2013-02-17 22:07:00,8.8,4.7,30.30,West,278,0.0,0.0,83,0.00,,,0.00,Wunderground v.1.15,2013-02-18 03:07:00,
2013-02-17 22:09:00,8.8,4.7,30.30,West,278,0.0,0.0,83,0.00,,,0.00,Wunderground v.1.15,2013-02-18 03:09:00,
2013-02-17 22:12:00,8.8,5.0,30.30,West,278,0.0,0.0,84,0.00,,,0.00,Wunderground v.1.15,2013-02-18 03:12:00,
2013-02-17 22:14:00,8.8,5.0,30.30,West,278,0.0,1.0,84,0.00,,,0.00,Wunderground v.1.15,2013-02-18 03:14:00,
2013-02-17 22:15:00,8.8,5.0,30.30,West,278,0.0,1.0,84,0.00,,,0.00,Wunderground v.1.15,2013-02-18 03:15:00,
2013-02-17 22:18:00,8.8,5.0,30.30,West,278,0.0,1.0,84,0.00,,,0.00,Wunderground v.1.15,2013-02-18 03:18:00,
2013-02-17 22:19:00,8.8,5.0,30.30,West,278,0.0,1.0,84,0.00,,,0.00,Wunderground v.1.15,2013-02-18 03:19:00,
2013-02-17 22:20:00,8.9,5.1,30.30,West,278,0.0,0.0,84,0.00,,,0.00,Wunderground v.1.15,2013-02-18 03:20:00,
2013-02-17 22:23:00,8.8,5.0,30.30,West,278,0.0,0.0,84,0.00,,,0.00,Wunderground v.1.15,2013-02-18 03:23:00,
2013-02-17 22:25:00,8.8,5.0,30.30,West,278,0.0,0.0,84,0.00,,,0.00,Wunderground v.1.15,2013-02-18 03:25:00,
2013-02-17 22:28:00,8.7,4.9,30.30,West,278,0.0,0.0,84,0.00,,,0.00,Wunderground v.1.15,2013-02-18 03:28:00,
2013-02-17 22:30:00,8.6,4.8,30.30,West,278,0.0,0.0,84,0.00,,,0.00,Wunderground v.1.15,2013-02-18 03:30:00,
2013-02-17 22:33:00,8.4,4.6,30.30,West,278,0.0,0.0,84,0.00,,,0.00,Wunderground v.1.15,2013-02-18 03:33:00,
2013-02-17 22:35:00,8.4,4.8,30.30,West,278,0.0,0.0,85,0.00,,,0.00,Wunderground v.1.15,2013-02-18 03:35:00,
2013-02-17 22:38:00,8.3,4.7,30.30,West,278,0.0,0.0,85,0.00,,,0.00,Wunderground v.1.15,2013-02-18 03:38:00,
2013-02-17 22:40:00,8.3,4.7,30.30,West,278,0.0,0.0,85,0.00,,,0.00,Wunderground v.1.15,2013-02-18 03:40:00,
2013-02-17 22:43:00,8.1,4.5,30.30,West,278,0.0,0.0,85,0.00,,,0.00,Wunderground v.1.15,2013-02-18 03:43:00,
2013-02-17 22:45:00,8.0,4.4,30.30,West,278,0.0,0.0,85,0.00,,,0.00,Wunderground v.1.15,2013-02-18 03:45:00,
2013-02-17 22:46:00,8.0,4.4,30.30,West,278,0.0,0.0,85,0.00,,,0.00,Wunderground v.1.15,2013-02-18 03:46:00,
2013-02-17 22:48:00,7.8,4.2,30.30,West,278,0.0,0.0,85,0.00,,,0.00,Wunderground v.1.15,2013-02-18 03:48:00,
2013-02-17 22:50:00,7.7,4.1,30.30,West,278,0.0,0.0,85,0.00,,,0.00,Wunderground v.1.15,2013-02-18 03:50:00,
2013-02-17 22:51:00,7.7,4.1,30.30,West,278,0.0,0.0,85,0.00,,,0.00,Wunderground v.1.15,2013-02-18 03:51:00,
2013-02-17 22:53:00,7.7,4.1,30.30,West,278,0.0,0.0,85,0.00,,,0.00,Wunderground v.1.15,2013-02-18 03:53:00,
2013-02-17 22:56:00,7.6,4.0,30.31,West,278,0.0,0.0,85,0.00,,,0.00,Wunderground v.1.15,2013-02-18 03:56:00,
2013-02-17 22:59:00,7.5,4.2,30.31,West,278,0.0,0.0,86,0.00,,,0.00,Wunderground v.1.15,2013-02-18 03:59:00,
2013-02-17 23:01:00,7.4,4.1,30.31,West,278,0.0,0.0,86,0.00,,,0.00,Wunderground v.1.15,2013-02-18 04:01:00,
2013-02-17 23:04:00,7.4,4.1,30.30,West,278,0.0,0.0,86,0.00,,,0.00,Wunderground v.1.15,2013-02-18 04:04:00,
2013-02-17 23:06:00,7.5,4.2,30.31,West,278,0.0,0.0,86,0.00,,,0.00,Wunderground v.1.15,2013-02-18 04:06:00,
2013-02-17 23:09:00,7.6,4.3,30.31,West,278,0.0,0.0,86,0.00,,,0.00,Wunderground v.1.15,2013-02-18 04:09:00,
2013-02-17 23:11:00,7.6,4.3,30.31,West,278,0.0,0.0,86,0.00,,,0.00,Wunderground v.1.15,2013-02-18 04:11:00,
2013-02-17 23:12:00,7.6,4.3,30.31,West,278,0.0,0.0,86,0.00,,,0.00,Wunderground v.1.15,2013-02-18 04:12:00,
2013-02-17 23:14:00,7.7,4.6,30.31,West,278,0.0,0.0,87,0.00,,,0.00,Wunderground v.1.15,2013-02-18 04:14:00,
2013-02-17 23:16:00,7.8,4.7,30.31,West,278,0.0,0.0,87,0.00,,,0.00,Wunderground v.1.15,2013-02-18 04:16:00,
2013-02-17 23:17:00,7.9,4.8,30.31,West,278,0.0,0.0,87,0.00,,,0.00,Wunderground v.1.15,2013-02-18 04:17:00,
2013-02-17 23:19:00,8.0,4.9,30.30,West,278,0.0,0.0,87,0.00,,,0.00,Wunderground v.1.15,2013-02-18 04:19:00,
2013-02-17 23:21:00,8.0,4.9,30.30,West,278,0.0,0.0,87,0.00,,,0.00,Wunderground v.1.15,2013-02-18 04:21:00,
2013-02-17 23:22:00,8.0,4.9,30.30,West,278,0.0,0.0,87,0.00,,,0.00,Wunderground v.1.15,2013-02-18 04:22:00,
2013-02-17 23:24:00,8.0,4.9,30.30,West,278,0.0,0.0,87,0.00,,,0.00,Wunderground v.1.15,2013-02-18 04:24:00,
2013-02-17 23:26:00,8.0,4.9,30.30,West,278,0.0,0.0,87,0.00,,,0.00,Wunderground v.1.15,2013-02-18 04:26:00,
2013-02-17 23:27:00,8.0,4.9,30.30,West,278,0.0,0.0,87,0.00,,,0.00,Wunderground v.1.15,2013-02-18 04:27:00,
2013-02-17 23:30:00,8.0,4.9,30.30,West,278,0.0,0.0,87,0.00,,,0.00,Wunderground v.1.15,2013-02-18 04:30:00,
2013-02-17 23:31:00,8.0,4.9,30.30,West,278,0.0,0.0,87,0.00,,,0.00,Wunderground v.1.15,2013-02-18 04:31:00,
2013-02-17 23:32:00,8.0,4.9,30.30,West,278,0.0,0.0,87,0.00,,,0.00,Wunderground v.1.15,2013-02-18 04:32:00,
2013-02-17 23:33:00,8.0,4.9,30.30,West,278,0.0,0.0,87,0.00,,,0.00,Wunderground v.1.15,2013-02-18 04:33:00,
2013-02-17 23:35:00,8.0,4.9,30.30,West,278,0.0,0.0,87,0.00,,,0.00,Wunderground v.1.15,2013-02-18 04:35:00,
2013-02-17 23:36:00,8.0,4.9,30.30,West,278,0.0,0.0,87,0.00,,,0.00,Wunderground v.1.15,2013-02-18 04:36:00,
2013-02-17 23:37:00,8.0,4.9,30.30,West,278,0.0,0.0,87,0.00,,,0.00,Wunderground v.1.15,2013-02-18 04:37:00,
2013-02-17 23:38:00,8.0,4.9,30.30,West,278,0.0,0.0,87,0.00,,,0.00,Wunderground v.1.15,2013-02-18 04:38:00,
2013-02-17 23:40:00,8.0,4.9,30.30,West,278,0.0,0.0,87,0.00,,,0.00,Wunderground v.1.15,2013-02-18 04:40:00,
2013-02-17 23:42:00,7.9,4.8,30.30,West,278,0.0,0.0,87,0.00,,,0.00,Wunderground v.1.15,2013-02-18 04:42:00,
2013-02-17 23:43:00,7.8,4.7,30.30,West,278,0.0,0.0,87,0.00,,,0.00,Wunderground v.1.15,2013-02-18 04:43:00,
2013-02-17 23:45:00,7.7,4.6,30.30,West,278,0.0,0.0,87,0.00,,,0.00,Wunderground v.1.15,2013-02-18 04:45:00,
2013-02-17 23:47:00,7.7,4.6,30.30,West,278,0.0,0.0,87,0.00,,,0.00,Wunderground v.1.15,2013-02-18 04:47:00,
2013-02-17 23:48:00,7.7,4.6,30.30,West,278,0.0,0.0,87,0.00,,,0.00,Wunderground v.1.15,2013-02-18 04:48:00,
2013-02-17 23:50:00,7.7,4.6,30.30,West,278,0.0,0.0,87,0.00,,,0.00,Wunderground v.1.15,2013-02-18 04:50:00,
2013-02-17 23:52:00,7.8,4.7,30.30,West,278,0.0,0.0,87,0.00,,,0.00,Wunderground v.1.15,2013-02-18 04:52:00,
2013-02-17 23:54:00,7.8,4.7,30.30,West,278,0.0,0.0,87,0.00,,,0.00,Wunderground v.1.15,2013-02-18 04:54:00,
2013-02-17 23:55:00,7.8,4.7,30.30,West,278,0.0,0.0,87,0.00,,,0.00,Wunderground v.1.15,2013-02-18 04:55:00,
2013-02-17 23:57:00,7.9,4.8,30.30,West,278,0.0,0.0,87,0.00,,,0.00,Wunderground v.1.15,2013-02-18 04:57:00,
2013-02-17 23:59:00,7.8,4.7,30.30,West,278,0.0,0.0,87,0.00,,,0.00,Wunderground v.1.15,2013-02-18 04:59:00,